| time (UTC) | temp F | wind direction | speed MPH | gust MPH | rain 1hr in | rain 24hr in | rain mn in | humidity % | barometer mb |
| 20260906225044 | 75 | 34 | 0.0 | 0.0 | 0.00 | 0.01 | 0.01 | 61 | 1016.1 |
| 20260906224938 | 75 | 34 | 0.0 | 0.0 | 0.00 | 0.01 | 0.01 | 60 | 1016.0 |
| 20260906224835 | 75 | 34 | 0.0 | 0.0 | 0.00 | 0.01 | 0.01 | 60 | 1016.1 |
| 20260906224729 | 75 | 44 | 0.0 | 0.0 | 0.00 | 0.01 | 0.01 | 60 | 1016.0 |
| 20260906224624 | 75 | 45 | 0.0 | 0.0 | 0.00 | 0.01 | 0.01 | 60 | 1016.1 |
| 20260906224520 | 75 | 24 | 0.0 | 0.0 | 0.00 | 0.01 | 0.01 | 60 | 1016.0 |
| 20260906224417 | 75 | 47 | 0.0 | 0.0 | 0.00 | 0.01 | 0.01 | 59 | 1016.0 |
| 20260906224309 | 75 | 37 | 0.0 | 0.0 | 0.00 | 0.01 | 0.01 | 60 | 1016.1 |
| 20260906224206 | 75 | 32 | 0.0 | 0.0 | 0.00 | 0.01 | 0.01 | 59 | 1016.0 |
| 20260906224101 | 75 | 32 | 0.0 | 0.0 | 0.00 | 0.01 | 0.01 | 59 | 1016.0 |
| 20260906223957 | 75 | 41 | 0.0 | 0.0 | 0.00 | 0.01 | 0.01 | 60 | 1016.0 |
| 20260906223853 | 76 | 51 | 0.0 | 0.0 | 0.00 | 0.01 | 0.01 | 59 | 1016.0 |
| 20260906223747 | 76 | 57 | 0.0 | 0.0 | 0.00 | 0.01 | 0.01 | 60 | 1016.0 |
| 20260906223423 | 76 | 13 | 0.0 | 0.0 | 0.00 | 0.01 | 0.01 | 59 | 1016.1 |
| 20260906223101 | 76 | 34 | 0.0 | 0.0 | 0.00 | 0.01 | 0.01 | 59 | 1015.9 |
| 20260906222959 | 76 | 55 | 0.0 | 0.0 | 0.00 | 0.01 | 0.01 | 58 | 1016.0 |
| 20260906222853 | 76 | 50 | 0.0 | 0.0 | 0.00 | 0.01 | 0.01 | 58 | 1015.9 |
| 20260906222751 | 76 | 28 | 0.0 | 0.0 | 0.00 | 0.01 | 0.01 | 59 | 1015.9 |
| 20260906222645 | 76 | 46 | 0.0 | 0.0 | 0.00 | 0.01 | 0.01 | 59 | 1015.9 |
| 20260906222317 | 76 | 46 | 0.0 | 0.0 | 0.00 | 0.01 | 0.01 | 58 | 1016.0 |
| 20260906222214 | 76 | 48 | 0.0 | 0.0 | 0.00 | 0.01 | 0.01 | 59 | 1016.0 |
| 20260906222109 | 76 | 48 | 0.0 | 0.0 | 0.00 | 0.01 | 0.01 | 59 | 1016.0 |
| 20260906222004 | 76 | 48 | 0.0 | 0.0 | 0.00 | 0.01 | 0.01 | 60 | 1016.0 |
| 20260906221858 | 76 | 48 | 0.0 | 0.0 | 0.00 | 0.01 | 0.01 | 59 | 1016.0 |
| 20260906221756 | 76 | 48 | 0.0 | 0.0 | 0.00 | 0.01 | 0.01 | 59 | 1016.0 |
| 20260906221432 | 76 | 53 | 0.0 | 0.0 | 0.00 | 0.01 | 0.01 | 58 | 1015.9 |
| 20260906221325 | 76 | 26 | 0.0 | 0.0 | 0.00 | 0.01 | 0.01 | 58 | 1015.9 |
| 20260906221218 | 76 | 26 | 0.0 | 0.0 | 0.00 | 0.01 | 0.01 | 58 | 1015.9 |
| 20260906221115 | 76 | 19 | 0.0 | 0.0 | 0.00 | 0.01 | 0.01 | 58 | 1016.0 |
| 20260906221010 | 77 | 31 | 0.0 | 0.0 | 0.00 | 0.01 | 0.01 | 59 | 1015.9 |
| 20260906220903 | 77 | 30 | 0.0 | 0.0 | 0.00 | 0.01 | 0.01 | 59 | 1015.9 |
| 20260906220538 | 77 | 58 | 0.0 | 0.0 | 0.00 | 0.01 | 0.01 | 58 | 1015.9 |
| 20260906215949 | 76 | 28 | 0.0 | 0.0 | 0.00 | 0.01 | 0.01 | 60 | 1016.0 |
| 20260906215842 | 76 | 355 | 0.0 | 0.0 | 0.00 | 0.01 | 0.01 | 61 | 1016.0 |
| 20260906215735 | 76 | 355 | 0.0 | 0.0 | 0.00 | 0.01 | 0.01 | 61 | 1016.0 |
| 20260906215630 | 76 | 355 | 0.0 | 0.0 | 0.00 | 0.01 | 0.01 | 59 | 1016.0 |
| 20260906215523 | 76 | 355 | 0.0 | 0.0 | 0.00 | 0.01 | 0.01 | 62 | 1016.0 |
| 20260906215417 | 76 | 319 | 0.0 | 0.0 | 0.00 | 0.01 | 0.01 | 61 | 1016.0 |
| 20260906215311 | 75 | 318 | 0.0 | 0.0 | 0.00 | 0.01 | 0.01 | 60 | 1016.0 |
| 20260906215206 | 75 | 15 | 0.0 | 0.0 | 0.00 | 0.01 | 0.01 | 61 | 1016.0 |
| 20260906215100 | 75 | 15 | 0.0 | 0.0 | 0.00 | 0.01 | 0.01 | 62 | 1016.0 |
| 20260906214957 | 75 | 15 | 0.0 | 0.0 | 0.00 | 0.01 | 0.01 | 59 | 1016.0 |
| 20260906214854 | 75 | 15 | 0.0 | 0.0 | 0.00 | 0.01 | 0.01 | 59 | 1016.0 |
| 20260906214748 | 75 | 15 | 0.0 | 0.0 | 0.00 | 0.01 | 0.01 | 59 | 1015.9 |
| 20260906214645 | 76 | 15 | 0.0 | 0.0 | 0.00 | 0.01 | 0.01 | 58 | 1015.9 |
| 20260906214322 | 76 | 13 | 0.0 | 0.0 | 0.00 | 0.01 | 0.01 | 58 | 1015.9 |
| 20260906214213 | 76 | 21 | 0.0 | 0.0 | 0.00 | 0.01 | 0.01 | 58 | 1015.9 |
| 20260906214105 | 76 | 19 | 0.0 | 0.0 | 0.00 | 0.01 | 0.01 | 57 | 1015.8 |
| 20260906214003 | 77 | 19 | 0.0 | 0.0 | 0.00 | 0.01 | 0.01 | 57 | 1015.8 |
| 20260906213900 | 77 | 19 | 0.0 | 0.0 | 0.00 | 0.01 | 0.01 | 57 | 1015.8 |
| 20260906213758 | 77 | 5 | 0.0 | 0.0 | 0.00 | 0.01 | 0.01 | 56 | 1015.8 |
| 20260906213652 | 77 | 5 | 0.0 | 0.0 | 0.00 | 0.01 | 0.01 | 56 | 1015.8 |
| 20260906213329 | 77 | 56 | 0.0 | 0.0 | 0.00 | 0.01 | 0.01 | 56 | 1015.7 |
| 20260906213224 | 77 | 61 | 0.0 | 0.0 | 0.00 | 0.01 | 0.01 | 56 | 1015.8 |
| 20260906213120 | 77 | 15 | 0.0 | 0.0 | 0.00 | 0.01 | 0.01 | 57 | 1015.7 |
| 20260906213013 | 77 | 355 | 0.0 | 0.0 | 0.00 | 0.01 | 0.01 | 57 | 1015.8 |
| 20260906212907 | 77 | 17 | 0.0 | 0.0 | 0.00 | 0.01 | 0.01 | 58 | 1015.7 |
| 20260906212759 | 77 | 31 | 0.0 | 0.0 | 0.00 | 0.01 | 0.01 | 58 | 1015.8 |
| 20260906212654 | 77 | 19 | 0.0 | 0.0 | 0.00 | 0.01 | 0.01 | 58 | 1015.8 |
| 20260906212549 | 77 | 19 | 0.0 | 0.0 | 0.00 | 0.01 | 0.01 | 57 | 1015.8 |
| 20260906212447 | 77 | 19 | 0.0 | 0.0 | 0.00 | 0.01 | 0.01 | 56 | 1015.8 |
| 20260906212339 | 77 | 19 | 0.0 | 0.0 | 0.00 | 0.01 | 0.01 | 56 | 1015.8 |
| 20260906212013 | 78 | 23 | 0.0 | 0.0 | 0.00 | 0.01 | 0.01 | 57 | 1015.7 |
| 20260906211648 | 78 | 13 | 0.0 | 0.0 | 0.00 | 0.01 | 0.01 | 56 | 1015.8 |
| 20260906211321 | 77 | 34 | 0.0 | 0.0 | 0.00 | 0.01 | 0.01 | 56 | 1015.8 |
| 20260906211214 | 77 | 35 | 0.0 | 0.0 | 0.00 | 0.01 | 0.01 | 58 | 1015.9 |
| 20260906211108 | 77 | 34 | 0.0 | 0.0 | 0.00 | 0.01 | 0.01 | 55 | 1015.9 |
| 20260906211005 | 77 | 44 | 0.0 | 0.0 | 0.00 | 0.01 | 0.01 | 55 | 1015.9 |
| 20260906210900 | 77 | 46 | 0.0 | 0.0 | 0.00 | 0.01 | 0.01 | 55 | 1015.9 |
| 20260906210756 | 78 | 33 | 0.0 | 0.0 | 0.00 | 0.01 | 0.01 | 56 | 1015.8 |
| 20260906210653 | 78 | 50 | 0.0 | 0.0 | 0.00 | 0.01 | 0.01 | 57 | 1015.8 |
| 20260906210552 | 78 | 25 | 0.0 | 0.0 | 0.00 | 0.01 | 0.01 | 56 | 1015.9 |
| 20260906210446 | 78 | 47 | 0.0 | 0.0 | 0.00 | 0.01 | 0.01 | 57 | 1015.9 |
| 20260906210343 | 78 | 33 | 0.0 | 0.0 | 0.00 | 0.01 | 0.01 | 57 | 1015.9 |
| 20260906210240 | 78 | 22 | 0.0 | 0.0 | 0.00 | 0.01 | 0.01 | 57 | 1015.9 |
| 20260906210138 | 78 | 5 | 0.0 | 0.0 | 0.00 | 0.01 | 0.01 | 57 | 1015.9 |
| 20260906210031 | 78 | 5 | 0.0 | 0.0 | 0.00 | 0.01 | 0.01 | 58 | 1015.9 |
| 20260906205927 | 78 | 50 | 0.0 | 0.0 | 0.00 | 0.01 | 0.01 | 58 | 1015.9 |
| 20260906205825 | 78 | 349 | 0.0 | 0.0 | 0.00 | 0.01 | 0.01 | 57 | 1015.9 |
| 20260906205719 | 78 | 30 | 0.0 | 0.0 | 0.00 | 0.01 | 0.01 | 59 | 1016.0 |
| 20260906205614 | 78 | 26 | 0.0 | 0.0 | 0.00 | 0.01 | 0.01 | 57 | 1015.9 |
| 20260906205510 | 78 | 351 | 0.0 | 0.0 | 0.00 | 0.01 | 0.01 | 57 | 1016.0 |
| 20260906205405 | 78 | 12 | 0.0 | 0.0 | 0.00 | 0.01 | 0.01 | 57 | 1015.9 |
| 20260906205305 | 78 | 23 | 0.0 | 0.0 | 0.00 | 0.01 | 0.01 | 56 | 1016.0 |
| 20260906205155 | 78 | 28 | 0.0 | 0.0 | 0.00 | 0.01 | 0.01 | 58 | 1015.9 |
| 20260906205051 | 78 | 30 | 0.0 | 0.0 | 0.00 | 0.01 | 0.01 | 57 | 1015.9 |
| 20260906204949 | 78 | 30 | 0.0 | 0.0 | 0.00 | 0.01 | 0.01 | 57 | 1015.9 |
| 20260906204623 | 78 | 32 | 0.0 | 0.0 | 0.00 | 0.01 | 0.01 | 57 | 1015.9 |
| 20260906204300 | 77 | 355 | 0.0 | 0.0 | 0.00 | 0.01 | 0.01 | 57 | 1015.8 |
| 20260906204152 | 77 | 34 | 0.0 | 0.0 | 0.00 | 0.01 | 0.01 | 56 | 1015.8 |
| 20260906204050 | 77 | 51 | 0.0 | 0.0 | 0.00 | 0.01 | 0.01 | 56 | 1015.8 |
| 20260906203947 | 77 | 33 | 0.0 | 0.0 | 0.00 | 0.01 | 0.01 | 57 | 1015.8 |
| 20260906203840 | 77 | 42 | 0.0 | 0.0 | 0.00 | 0.01 | 0.01 | 57 | 1015.8 |
| 20260906203734 | 77 | 349 | 0.0 | 0.0 | 0.00 | 0.01 | 0.01 | 57 | 1015.8 |
| 20260906203627 | 77 | 41 | 0.0 | 0.0 | 0.00 | 0.01 | 0.01 | 56 | 1015.9 |
| 20260906203524 | 77 | 0 | 0.0 | 0.0 | 0.00 | 0.01 | 0.01 | 58 | 1015.9 |
| 20260906203419 | 77 | 34 | 0.0 | 0.0 | 0.00 | 0.01 | 0.01 | 57 | 1015.9 |
| 20260906203312 | 77 | 5 | 0.0 | 0.0 | 0.00 | 0.01 | 0.01 | 56 | 1015.9 |
| 20260906203208 | 77 | 32 | 0.0 | 0.0 | 0.00 | 0.01 | 0.01 | 56 | 1016.0 |
| 20260906203104 | 77 | 36 | 0.0 | 0.0 | 0.00 | 0.01 | 0.01 | 56 | 1016.0 |
| 20260906202958 | 78 | 28 | 0.0 | 0.0 | 0.00 | 0.01 | 0.01 | 56 | 1016.0 |
| 20260906202854 | 78 | 0 | 0.0 | 0.0 | 0.00 | 0.01 | 0.01 | 57 | 1015.9 |
| 20260906202748 | 78 | 19 | 0.0 | 0.0 | 0.00 | 0.01 | 0.01 | 57 | 1016.0 |
| 20260906202642 | 78 | 15 | 0.0 | 0.0 | 0.00 | 0.01 | 0.01 | 56 | 1015.9 |
| 20260906202316 | 78 | 15 | 0.0 | 0.0 | 0.00 | 0.01 | 0.01 | 55 | 1015.9 |
| 20260906202210 | 78 | 29 | 0.0 | 0.0 | 0.00 | 0.01 | 0.01 | 55 | 1015.9 |
| 20260906202105 | 78 | 341 | 0.0 | 0.0 | 0.00 | 0.01 | 0.01 | 55 | 1015.9 |
| 20260906201523 | 78 | 355 | 0.0 | 0.0 | 0.00 | 0.01 | 0.01 | 56 | 1015.8 |
| 20260906201159 | 78 | 26 | 0.0 | 0.0 | 0.00 | 0.01 | 0.01 | 58 | 1015.8 |
| 20260906200832 | 78 | 30 | 0.0 | 0.0 | 0.00 | 0.01 | 0.01 | 57 | 1015.8 |
| 20260906200728 | 77 | 46 | 0.0 | 0.0 | 0.00 | 0.01 | 0.01 | 57 | 1015.8 |
| 20260906200626 | 77 | 82 | 0.0 | 0.0 | 0.00 | 0.01 | 0.01 | 56 | 1015.8 |
| 20260906200522 | 77 | 83 | 0.0 | 0.0 | 0.00 | 0.01 | 0.01 | 57 | 1015.8 |
| 20260906200414 | 77 | 49 | 0.0 | 0.0 | 0.00 | 0.01 | 0.01 | 56 | 1015.8 |
| 20260906200307 | 77 | 81 | 0.0 | 0.0 | 0.00 | 0.01 | 0.01 | 55 | 1015.9 |
| 20260906200159 | 77 | 76 | 0.0 | 0.0 | 0.00 | 0.01 | 0.01 | 57 | 1015.8 |
| 20260906200054 | 77 | 64 | 0.0 | 0.0 | 0.00 | 0.01 | 0.01 | 56 | 1015.9 |
| 20260906195951 | 77 | 31 | 0.0 | 0.0 | 0.00 | 0.01 | 0.01 | 59 | 1015.9 |
| 20260906195845 | 77 | 44 | 0.0 | 0.0 | 0.00 | 0.01 | 0.01 | 57 | 1015.9 |
| 20260906195518 | 77 | 69 | 0.0 | 0.0 | 0.00 | 0.01 | 0.01 | 58 | 1015.9 |
| 20260906195413 | 76 | 35 | 0.0 | 0.0 | 0.00 | 0.01 | 0.01 | 57 | 1015.9 |
| 20260906195310 | 76 | 46 | 0.0 | 0.0 | 0.00 | 0.01 | 0.01 | 56 | 1015.9 |
| 20260906195206 | 76 | 51 | 0.0 | 0.0 | 0.00 | 0.01 | 0.01 | 57 | 1015.9 |
| 20260906195059 | 76 | 87 | 0.0 | 0.0 | 0.00 | 0.01 | 0.01 | 57 | 1015.9 |
| 20260906194951 | 76 | 83 | 0.0 | 0.0 | 0.00 | 0.01 | 0.01 | 58 | 1015.9 |
| 20260906194848 | 76 | 61 | 0.0 | 0.0 | 0.00 | 0.01 | 0.01 | 58 | 1015.9 |
| 20260906194743 | 76 | 58 | 0.0 | 0.0 | 0.00 | 0.01 | 0.01 | 58 | 1015.9 |
| 20260906194415 | 77 | 9 | 0.0 | 0.0 | 0.00 | 0.01 | 0.01 | 57 | 1015.9 |
| 20260906194312 | 77 | 0 | 0.0 | 0.0 | 0.00 | 0.01 | 0.01 | 57 | 1015.9 |
| 20260906194207 | 77 | 9 | 0.0 | 0.0 | 0.00 | 0.01 | 0.01 | 57 | 1015.9 |
| 20260906194103 | 77 | 61 | 0.0 | 0.0 | 0.00 | 0.01 | 0.01 | 57 | 1015.9 |
| 20260906193955 | 77 | 300 | 0.0 | 0.0 | 0.00 | 0.01 | 0.01 | 57 | 1015.9 |
| 20260906193848 | 77 | 36 | 0.0 | 0.0 | 0.00 | 0.01 | 0.01 | 57 | 1015.9 |
| 20260906193745 | 77 | 42 | 0.0 | 0.0 | 0.00 | 0.01 | 0.01 | 59 | 1015.9 |
| 20260906193642 | 76 | 54 | 0.0 | 0.0 | 0.00 | 0.01 | 0.01 | 57 | 1015.9 |
| 20260906193538 | 76 | 46 | 0.0 | 0.0 | 0.00 | 0.01 | 0.01 | 58 | 1015.9 |
| 20260906193432 | 76 | 40 | 0.0 | 0.0 | 0.00 | 0.01 | 0.01 | 59 | 1016.0 |
| 20260906193330 | 76 | 22 | 0.0 | 0.0 | 0.00 | 0.01 | 0.01 | 58 | 1016.0 |
| 20260906193223 | 76 | 20 | 0.0 | 0.0 | 0.00 | 0.01 | 0.01 | 58 | 1016.0 |
| 20260906193118 | 76 | 20 | 0.0 | 0.0 | 0.00 | 0.01 | 0.01 | 60 | 1016.0 |
| 20260906193011 | 75 | 19 | 0.0 | 0.0 | 0.00 | 0.01 | 0.01 | 59 | 1016.0 |
| 20260906192650 | 75 | 26 | 0.0 | 0.0 | 0.00 | 0.01 | 0.01 | 59 | 1016.0 |
| 20260906192547 | 75 | 24 | 0.0 | 0.0 | 0.00 | 0.01 | 0.01 | 59 | 1016.1 |
| 20260906192443 | 75 | 26 | 0.0 | 0.0 | 0.00 | 0.01 | 0.01 | 58 | 1016.1 |
| 20260906192116 | 75 | 26 | 0.0 | 0.0 | 0.00 | 0.01 | 0.01 | 58 | 1016.1 |
| 20260906192012 | 76 | 19 | 0.0 | 0.0 | 0.00 | 0.01 | 0.01 | 58 | 1016.1 |
| 20260906191906 | 76 | 24 | 0.0 | 0.0 | 0.00 | 0.01 | 0.01 | 57 | 1016.2 |
| 20260906191542 | 76 | 9 | 0.0 | 0.0 | 0.00 | 0.01 | 0.01 | 56 | 1016.2 |
| 20260906190957 | 76 | 328 | 0.0 | 0.0 | 0.00 | 0.01 | 0.01 | 58 | 1016.2 |
| 20260906190850 | 76 | 18 | 0.0 | 0.0 | 0.00 | 0.01 | 0.01 | 58 | 1016.2 |
| 20260906190748 | 76 | 36 | 0.0 | 0.0 | 0.00 | 0.01 | 0.01 | 58 | 1016.2 |
| 20260906190642 | 76 | 20 | 0.0 | 0.0 | 0.00 | 0.01 | 0.01 | 59 | 1016.2 |
| 20260906190539 | 76 | 66 | 0.0 | 0.0 | 0.00 | 0.01 | 0.01 | 58 | 1016.2 |
| 20260906190434 | 76 | 74 | 0.0 | 0.0 | 0.00 | 0.01 | 0.01 | 60 | 1016.2 |
| 20260906190328 | 76 | 32 | 0.0 | 0.0 | 0.00 | 0.01 | 0.01 | 60 | 1016.2 |
| 20260906190222 | 76 | 38 | 0.0 | 0.0 | 0.00 | 0.01 | 0.01 | 60 | 1016.2 |
| 20260906190116 | 76 | 5 | 0.0 | 0.0 | 0.00 | 0.01 | 0.01 | 58 | 1016.2 |
| 20260906190011 | 76 | 11 | 0.0 | 0.0 | 0.00 | 0.01 | 0.01 | 57 | 1016.2 |
| 20260906185903 | 76 | 24 | 0.0 | 0.0 | 0.00 | 0.01 | 0.01 | 57 | 1016.3 |
| 20260906185537 | 76 | 28 | 0.0 | 0.0 | 0.00 | 0.01 | 0.01 | 57 | 1016.3 |
| 20260906185435 | 76 | 32 | 0.0 | 0.0 | 0.00 | 0.01 | 0.01 | 58 | 1016.2 |
| 20260906185110 | 76 | 25 | 0.0 | 0.0 | 0.00 | 0.01 | 0.01 | 58 | 1016.3 |
| 20260906185003 | 76 | 52 | 0.0 | 0.0 | 0.00 | 0.01 | 0.01 | 59 | 1016.3 |
| 20260906184901 | 76 | 18 | 0.0 | 0.0 | 0.00 | 0.01 | 0.01 | 59 | 1016.3 |
| 20260906184758 | 76 | 50 | 0.0 | 0.0 | 0.00 | 0.01 | 0.01 | 58 | 1016.3 |
| 20260906184652 | 76 | 40 | 0.0 | 0.0 | 0.00 | 0.01 | 0.01 | 58 | 1016.2 |
| 20260906184546 | 76 | 35 | 0.0 | 0.0 | 0.00 | 0.01 | 0.01 | 58 | 1016.2 |
| 20260906184443 | 76 | 32 | 0.0 | 0.0 | 0.00 | 0.01 | 0.01 | 57 | 1016.2 |
| 20260906184337 | 76 | 19 | 0.0 | 0.0 | 0.00 | 0.01 | 0.01 | 56 | 1016.2 |
| 20260906184233 | 76 | 351 | 0.0 | 0.0 | 0.00 | 0.01 | 0.01 | 56 | 1016.2 |
| 20260906184127 | 76 | 28 | 0.0 | 0.0 | 0.00 | 0.01 | 0.01 | 57 | 1016.3 |
| 20260906184020 | 77 | 15 | 0.0 | 0.0 | 0.00 | 0.01 | 0.01 | 57 | 1016.1 |
| 20260906183916 | 77 | 32 | 0.0 | 0.0 | 0.00 | 0.01 | 0.01 | 57 | 1016.1 |
| 20260906183812 | 77 | 19 | 0.0 | 0.0 | 0.00 | 0.01 | 0.01 | 58 | 1016.1 |
| 20260906183445 | 76 | 30 | 0.0 | 0.0 | 0.00 | 0.01 | 0.01 | 58 | 1016.2 |
| 20260906183340 | 76 | 69 | 0.0 | 0.0 | 0.00 | 0.01 | 0.01 | 58 | 1016.2 |
| 20260906183010 | 76 | 68 | 0.0 | 0.0 | 0.00 | 0.01 | 0.01 | 58 | 1016.2 |
| 20260906182647 | 76 | 78 | 0.0 | 0.0 | 0.00 | 0.01 | 0.01 | 58 | 1016.3 |
| 20260906182058 | 76 | 61 | 0.0 | 0.0 | 0.00 | 0.01 | 0.01 | 57 | 1016.4 |
| 20260906181953 | 76 | 70 | 0.0 | 0.0 | 0.00 | 0.01 | 0.01 | 58 | 1016.5 |
| 20260906181849 | 76 | 62 | 0.0 | 0.0 | 0.00 | 0.01 | 0.01 | 59 | 1016.4 |
| 20260906181745 | 76 | 9 | 0.0 | 0.0 | 0.00 | 0.01 | 0.01 | 59 | 1016.3 |
| 20260906181641 | 76 | 70 | 0.0 | 0.0 | 0.00 | 0.01 | 0.01 | 59 | 1016.4 |
| 20260906181051 | 75 | 325 | 0.0 | 0.0 | 0.00 | 0.01 | 0.01 | 60 | 1016.3 |
| 20260906180943 | 75 | 28 | 0.0 | 0.0 | 0.00 | 0.01 | 0.01 | 61 | 1016.4 |
| 20260906180838 | 75 | 26 | 0.0 | 0.0 | 0.00 | 0.01 | 0.01 | 62 | 1016.4 |
| 20260906180733 | 75 | 57 | 0.0 | 0.0 | 0.00 | 0.01 | 0.01 | 63 | 1016.4 |
| 20260906180625 | 75 | 22 | 0.0 | 0.0 | 0.00 | 0.01 | 0.01 | 61 | 1016.4 |
| 20260906180519 | 75 | 22 | 0.0 | 0.0 | 0.00 | 0.01 | 0.01 | 62 | 1016.4 |
| 20260906180414 | 75 | 24 | 0.0 | 0.0 | 0.00 | 0.01 | 0.01 | 61 | 1016.5 |
| 20260906180311 | 75 | 24 | 0.0 | 0.0 | 0.00 | 0.01 | 0.01 | 60 | 1016.4 |
| 20260906180206 | 76 | 28 | 0.0 | 0.0 | 0.00 | 0.01 | 0.01 | 60 | 1016.5 |
| 20260906175739 | 76 | 67 | 0.0 | 0.0 | 0.00 | 0.01 | 0.01 | 61 | 1016.6 |
| 20260906175637 | 76 | 121 | 0.0 | 0.0 | 0.00 | 0.01 | 0.01 | 58 | 1016.6 |
| 20260906175531 | 76 | 38 | 0.0 | 0.0 | 0.00 | 0.01 | 0.01 | 60 | 1016.6 |
| 20260906175212 | 75 | 15 | 0.0 | 0.0 | 0.00 | 0.01 | 0.01 | 58 | 1016.7 |
| 20260906175104 | 75 | 14 | 0.0 | 0.0 | 0.00 | 0.01 | 0.01 | 61 | 1016.6 |
| 20260906175000 | 75 | 21 | 0.0 | 0.0 | 0.00 | 0.01 | 0.01 | 61 | 1016.7 |
| 20260906174856 | 75 | 13 | 0.0 | 0.0 | 0.00 | 0.01 | 0.01 | 60 | 1016.6 |
| 20260906174532 | 75 | 18 | 0.0 | 0.0 | 0.00 | 0.01 | 0.01 | 61 | 1016.6 |
| 20260906174429 | 75 | 355 | 0.0 | 0.0 | 0.00 | 0.01 | 0.01 | 62 | 1016.7 |
| 20260906174325 | 75 | 13 | 0.0 | 0.0 | 0.00 | 0.01 | 0.01 | 62 | 1016.7 |
| 20260906174218 | 75 | 335 | 0.0 | 0.0 | 0.00 | 0.01 | 0.01 | 61 | 1016.7 |
| 20260906174113 | 75 | 21 | 0.0 | 0.0 | 0.00 | 0.01 | 0.01 | 61 | 1016.8 |
| 20260906174008 | 75 | 57 | 0.0 | 0.0 | 0.00 | 0.01 | 0.01 | 63 | 1016.8 |
| 20260906173905 | 75 | 27 | 0.0 | 0.0 | 0.00 | 0.01 | 0.01 | 62 | 1016.8 |
| 20260906173759 | 75 | 78 | 0.0 | 0.0 | 0.00 | 0.01 | 0.01 | 63 | 1016.8 |
| 20260906173653 | 75 | 16 | 0.0 | 0.0 | 0.00 | 0.01 | 0.01 | 62 | 1016.8 |
| 20260906173546 | 75 | 21 | 0.0 | 0.0 | 0.00 | 0.01 | 0.01 | 62 | 1016.8 |
| 20260906173439 | 75 | 47 | 0.0 | 0.0 | 0.00 | 0.01 | 0.01 | 64 | 1016.8 |
| 20260906173332 | 75 | 9 | 0.0 | 0.0 | 0.00 | 0.01 | 0.01 | 61 | 1016.8 |
| 20260906173230 | 75 | 57 | 0.0 | 0.0 | 0.00 | 0.01 | 0.01 | 62 | 1016.8 |
| 20260906173125 | 75 | 34 | 0.0 | 0.0 | 0.00 | 0.01 | 0.01 | 62 | 1016.9 |
| 20260906173018 | 75 | 40 | 0.0 | 0.0 | 0.00 | 0.01 | 0.01 | 62 | 1016.8 |
| 20260906172915 | 75 | 26 | 0.0 | 0.0 | 0.00 | 0.01 | 0.01 | 61 | 1016.8 |
| 20260906172808 | 75 | 53 | 0.0 | 0.0 | 0.00 | 0.01 | 0.01 | 64 | 1016.8 |
| 20260906172705 | 74 | 9 | 0.0 | 0.0 | 0.00 | 0.01 | 0.01 | 63 | 1016.9 |
| 20260906172603 | 74 | 46 | 0.0 | 0.0 | 0.00 | 0.01 | 0.01 | 63 | 1016.9 |
| 20260906172017 | 74 | 42 | 0.0 | 0.0 | 0.00 | 0.01 | 0.01 | 63 | 1016.9 |
| 20260906171911 | 74 | 42 | 0.0 | 0.0 | 0.00 | 0.01 | 0.01 | 63 | 1016.9 |
| 20260906171805 | 74 | 355 | 0.0 | 0.0 | 0.00 | 0.01 | 0.01 | 63 | 1016.9 |
| 20260906171700 | 74 | 45 | 0.0 | 0.0 | 0.00 | 0.01 | 0.01 | 63 | 1017.0 |
| 20260906171557 | 73 | 76 | 0.0 | 0.0 | 0.00 | 0.01 | 0.01 | 64 | 1017.0 |
| 20260906171452 | 73 | 76 | 0.0 | 0.0 | 0.00 | 0.01 | 0.01 | 64 | 1017.0 |
| 20260906171349 | 73 | 77 | 0.0 | 0.0 | 0.00 | 0.01 | 0.01 | 64 | 1017.0 |
| 20260906171244 | 73 | 80 | 0.0 | 0.0 | 0.00 | 0.01 | 0.01 | 63 | 1017.0 |
| 20260906171139 | 73 | 91 | 0.0 | 0.0 | 0.00 | 0.01 | 0.01 | 64 | 1017.0 |
| 20260906171031 | 73 | 62 | 0.0 | 0.0 | 0.00 | 0.01 | 0.01 | 65 | 1017.0 |
| 20260906170929 | 73 | 34 | 0.0 | 0.0 | 0.00 | 0.01 | 0.01 | 64 | 1017.0 |
| 20260906170823 | 73 | 34 | 0.0 | 0.0 | 0.00 | 0.01 | 0.01 | 65 | 1017.0 |
| 20260906170719 | 73 | 39 | 0.0 | 0.0 | 0.00 | 0.01 | 0.01 | 66 | 1017.0 |
| 20260906170612 | 73 | 37 | 0.0 | 0.0 | 0.00 | 0.01 | 0.01 | 65 | 1017.0 |
| 20260906170250 | 73 | 60 | 0.0 | 0.0 | 0.00 | 0.01 | 0.01 | 65 | 1017.2 |
| 20260906170147 | 73 | 57 | 0.0 | 0.0 | 0.00 | 0.01 | 0.01 | 67 | 1017.2 |
| 20260906170044 | 73 | 72 | 0.0 | 0.0 | 0.00 | 0.01 | 0.01 | 66 | 1017.1 |
| 20260906165939 | 73 | 28 | 0.0 | 0.0 | 0.00 | 0.01 | 0.01 | 66 | 1017.1 |
| 20260906165833 | 73 | 45 | 0.0 | 0.0 | 0.00 | 0.01 | 0.01 | 66 | 1017.2 |
| 20260906165731 | 73 | 26 | 0.0 | 0.0 | 0.00 | 0.01 | 0.01 | 67 | 1017.2 |
| 20260906165630 | 73 | 26 | 0.0 | 0.0 | 0.00 | 0.01 | 0.01 | 67 | 1017.2 |
| 20260906165524 | 73 | 37 | 0.0 | 0.0 | 0.00 | 0.01 | 0.01 | 65 | 1017.3 |
| 20260906165417 | 73 | 36 | 0.0 | 0.0 | 0.00 | 0.01 | 0.01 | 66 | 1017.3 |
| 20260906165312 | 73 | 31 | 0.0 | 0.0 | 0.00 | 0.01 | 0.01 | 66 | 1017.2 |
| 20260906165206 | 73 | 55 | 0.0 | 0.0 | 0.00 | 0.01 | 0.01 | 68 | 1017.2 |
| 20260906165102 | 73 | 5 | 0.0 | 0.0 | 0.00 | 0.01 | 0.01 | 68 | 1017.2 |
| 20260906164955 | 73 | 5 | 0.0 | 0.0 | 0.00 | 0.01 | 0.01 | 69 | 1017.1 |
| 20260906164849 | 73 | 5 | 0.0 | 0.0 | 0.00 | 0.01 | 0.01 | 68 | 1017.1 |
| 20260906164747 | 73 | 5 | 0.0 | 0.0 | 0.00 | 0.01 | 0.01 | 68 | 1017.1 |
| 20260906164640 | 73 | 5 | 0.0 | 0.0 | 0.00 | 0.01 | 0.01 | 67 | 1017.2 |
| 20260906164537 | 73 | 5 | 0.0 | 0.0 | 0.00 | 0.01 | 0.01 | 67 | 1017.1 |
| 20260906164430 | 73 | 29 | 0.0 | 0.0 | 0.00 | 0.01 | 0.01 | 66 | 1017.1 |
| 20260906164324 | 74 | 30 | 0.0 | 0.0 | 0.00 | 0.01 | 0.01 | 66 | 1017.1 |
| 20260906164217 | 74 | 17 | 0.0 | 0.0 | 0.00 | 0.01 | 0.01 | 67 | 1017.1 |
| 20260906164111 | 74 | 30 | 0.0 | 0.0 | 0.00 | 0.01 | 0.01 | 64 | 1017.0 |
| 20260906164009 | 74 | 11 | 0.0 | 0.0 | 0.00 | 0.01 | 0.01 | 66 | 1017.1 |
| 20260906163905 | 74 | 39 | 0.0 | 0.0 | 0.00 | 0.01 | 0.01 | 66 | 1017.1 |
| 20260906163802 | 74 | 43 | 0.0 | 0.0 | 0.00 | 0.01 | 0.01 | 65 | 1017.1 |
| 20260906163657 | 74 | 9 | 0.0 | 0.0 | 0.00 | 0.01 | 0.01 | 65 | 1017.1 |
| 20260906163552 | 74 | 66 | 0.0 | 0.0 | 0.00 | 0.01 | 0.01 | 65 | 1017.1 |
| 20260906163448 | 74 | 34 | 0.0 | 0.0 | 0.00 | 0.01 | 0.01 | 66 | 1017.1 |
| 20260906163345 | 74 | 28 | 0.0 | 0.0 | 0.00 | 0.01 | 0.01 | 66 | 1017.1 |
| 20260906163241 | 74 | 325 | 0.0 | 0.0 | 0.00 | 0.01 | 0.01 | 67 | 1017.1 |
| 20260906163134 | 74 | 15 | 0.0 | 0.0 | 0.00 | 0.01 | 0.01 | 66 | 1017.2 |
| 20260906163027 | 74 | 338 | 0.0 | 0.0 | 0.00 | 0.01 | 0.01 | 68 | 1017.2 |
| 20260906162923 | 74 | 10 | 0.0 | 0.0 | 0.00 | 0.01 | 0.01 | 68 | 1017.2 |
| 20260906162818 | 74 | 0 | 0.0 | 0.0 | 0.00 | 0.01 | 0.01 | 68 | 1017.3 |
| 20260906162712 | 74 | 41 | 0.0 | 0.0 | 0.00 | 0.01 | 0.01 | 67 | 1017.3 |
| 20260906162606 | 74 | 44 | 0.0 | 0.0 | 0.00 | 0.01 | 0.01 | 68 | 1017.3 |
| 20260906162501 | 74 | 33 | 0.0 | 0.0 | 0.00 | 0.01 | 0.01 | 69 | 1017.3 |
| 20260906162357 | 74 | 50 | 0.0 | 0.0 | 0.00 | 0.01 | 0.01 | 68 | 1017.3 |
| 20260906162250 | 73 | 106 | 0.0 | 0.0 | 0.00 | 0.01 | 0.01 | 69 | 1017.3 |
| 20260906162142 | 73 | 62 | 0.0 | 0.0 | 0.00 | 0.01 | 0.01 | 69 | 1017.4 |
| 20260906162040 | 73 | 75 | 0.0 | 0.0 | 0.00 | 0.01 | 0.01 | 70 | 1017.3 |
| 20260906161719 | 73 | 54 | 0.0 | 0.0 | 0.00 | 0.01 | 0.01 | 67 | 1017.3 |
| 20260906161611 | 73 | 36 | 0.0 | 0.0 | 0.00 | 0.01 | 0.01 | 69 | 1017.4 |
| 20260906161510 | 73 | 29 | 0.0 | 0.0 | 0.00 | 0.01 | 0.01 | 70 | 1017.4 |
| 20260906161404 | 73 | 355 | 0.0 | 0.0 | 0.00 | 0.01 | 0.01 | 69 | 1017.3 |
| 20260906161300 | 73 | 47 | 0.0 | 0.0 | 0.00 | 0.01 | 0.01 | 69 | 1017.4 |
| 20260906161153 | 73 | 29 | 0.0 | 0.0 | 0.00 | 0.01 | 0.01 | 72 | 1017.4 |
| 20260906161049 | 73 | 53 | 0.0 | 0.0 | 0.00 | 0.01 | 0.01 | 70 | 1017.3 |
| 20260906160944 | 73 | 92 | 0.0 | 0.0 | 0.00 | 0.01 | 0.01 | 67 | 1017.3 |
| 20260906160843 | 72 | 58 | 0.0 | 0.0 | 0.00 | 0.01 | 0.01 | 68 | 1017.3 |
| 20260906160517 | 72 | 94 | 0.0 | 0.0 | 0.00 | 0.01 | 0.01 | 67 | 1017.3 |
| 20260906160411 | 72 | 71 | 0.0 | 0.0 | 0.00 | 0.01 | 0.01 | 70 | 1017.3 |
| 20260906160304 | 72 | 27 | 0.0 | 0.0 | 0.00 | 0.01 | 0.01 | 71 | 1017.3 |
| 20260906160159 | 72 | 61 | 0.0 | 0.0 | 0.00 | 0.01 | 0.01 | 70 | 1017.3 |
| 20260906160056 | 72 | 57 | 0.0 | 0.0 | 0.00 | 0.01 | 0.01 | 72 | 1017.4 |
| 20260906155952 | 72 | 51 | 0.0 | 0.0 | 0.00 | 0.01 | 0.01 | 70 | 1017.5 |
| 20260906155627 | 71 | 94 | 0.0 | 0.0 | 0.00 | 0.01 | 0.01 | 73 | 1017.4 |
| 20260906155523 | 71 | 37 | 0.0 | 0.0 | 0.00 | 0.01 | 0.01 | 72 | 1017.3 |
| 20260906155417 | 71 | 58 | 0.0 | 0.0 | 0.00 | 0.01 | 0.01 | 74 | 1017.4 |
| 20260906155311 | 71 | 88 | 0.0 | 0.0 | 0.00 | 0.01 | 0.01 | 75 | 1017.3 |
| 20260906155208 | 71 | 67 | 0.0 | 0.0 | 0.00 | 0.01 | 0.01 | 74 | 1017.4 |
| 20260906155105 | 71 | 29 | 0.0 | 0.0 | 0.00 | 0.01 | 0.01 | 74 | 1017.3 |
| 20260906154959 | 71 | 28 | 0.0 | 0.0 | 0.00 | 0.01 | 0.01 | 75 | 1017.3 |
| 20260906154855 | 71 | 28 | 0.0 | 0.0 | 0.00 | 0.01 | 0.01 | 75 | 1017.4 |
| 20260906154749 | 71 | 29 | 0.0 | 0.0 | 0.00 | 0.01 | 0.01 | 76 | 1017.3 |
| 20260906154647 | 71 | 50 | 0.0 | 0.0 | 0.00 | 0.01 | 0.01 | 76 | 1017.3 |
| 20260906154540 | 71 | 13 | 0.0 | 0.0 | 0.00 | 0.01 | 0.01 | 76 | 1017.3 |
| 20260906154435 | 71 | 342 | 0.0 | 0.0 | 0.00 | 0.01 | 0.01 | 76 | 1017.4 |
| 20260906154331 | 71 | 33 | 0.0 | 0.0 | 0.00 | 0.01 | 0.01 | 77 | 1017.3 |
| 20260906154228 | 71 | 33 | 0.0 | 0.0 | 0.00 | 0.01 | 0.01 | 78 | 1017.4 |
| 20260906154126 | 71 | 13 | 0.0 | 0.0 | 0.00 | 0.01 | 0.01 | 79 | 1017.3 |
| 20260906154018 | 71 | 348 | 0.0 | 0.0 | 0.00 | 0.01 | 0.01 | 80 | 1017.3 |
| 20260906153911 | 70 | 18 | 0.0 | 0.0 | 0.00 | 0.01 | 0.01 | 78 | 1017.3 |
| 20260906153807 | 70 | 19 | 0.0 | 0.0 | 0.00 | 0.01 | 0.01 | 79 | 1017.3 |
| 20260906153442 | 70 | 32 | 0.0 | 0.0 | 0.00 | 0.01 | 0.01 | 79 | 1017.2 |
| 20260906153338 | 70 | 31 | 0.0 | 0.0 | 0.00 | 0.01 | 0.01 | 79 | 1017.2 |
| 20260906153232 | 70 | 31 | 0.0 | 0.0 | 0.00 | 0.01 | 0.01 | 79 | 1017.2 |
| 20260906153130 | 70 | 38 | 0.0 | 0.0 | 0.00 | 0.01 | 0.01 | 78 | 1017.2 |
| 20260906153026 | 70 | 68 | 0.0 | 0.0 | 0.00 | 0.01 | 0.01 | 79 | 1017.1 |
| 20260906152923 | 70 | 26 | 0.0 | 0.0 | 0.00 | 0.01 | 0.01 | 79 | 1017.2 |
| 20260906152818 | 70 | 59 | 0.0 | 0.0 | 0.00 | 0.01 | 0.01 | 78 | 1017.2 |
| 20260906152713 | 70 | 24 | 0.0 | 0.0 | 0.00 | 0.01 | 0.01 | 79 | 1017.1 |
| 20260906152608 | 70 | 45 | 0.0 | 0.0 | 0.00 | 0.01 | 0.01 | 79 | 1017.1 |
| 20260906152507 | 70 | 46 | 0.0 | 0.0 | 0.00 | 0.01 | 0.01 | 80 | 1017.1 |
| 20260906152147 | 70 | 71 | 0.0 | 0.0 | 0.00 | 0.01 | 0.01 | 79 | 1017.1 |
| 20260906151818 | 70 | 16 | 0.0 | 0.0 | 0.00 | 0.01 | 0.01 | 78 | 1017.0 |
| 20260906151712 | 70 | 17 | 0.0 | 0.0 | 0.00 | 0.01 | 0.01 | 78 | 1017.1 |
| 20260906151610 | 70 | 17 | 0.0 | 0.0 | 0.00 | 0.01 | 0.01 | 79 | 1017.1 |
| 20260906151507 | 70 | 34 | 0.0 | 0.0 | 0.00 | 0.01 | 0.01 | 78 | 1017.0 |
| 20260906151400 | 71 | 33 | 0.0 | 0.0 | 0.00 | 0.01 | 0.01 | 78 | 1017.0 |
| 20260906151257 | 71 | 22 | 0.0 | 0.0 | 0.00 | 0.01 | 0.01 | 79 | 1017.1 |
| 20260906151154 | 71 | 55 | 0.0 | 0.0 | 0.00 | 0.01 | 0.01 | 79 | 1017.0 |
| 20260906151048 | 70 | 5 | 0.0 | 0.0 | 0.00 | 0.01 | 0.01 | 80 | 1017.0 |
| 20260906150942 | 70 | 53 | 0.0 | 0.0 | 0.00 | 0.01 | 0.01 | 79 | 1017.0 |
| 20260906150839 | 70 | 75 | 0.0 | 0.0 | 0.00 | 0.01 | 0.01 | 80 | 1017.1 |
| 20260906150733 | 70 | 32 | 0.0 | 0.0 | 0.00 | 0.01 | 0.01 | 81 | 1017.0 |
| 20260906150628 | 70 | 59 | 0.0 | 0.0 | 0.00 | 0.01 | 0.01 | 80 | 1017.0 |
| 20260906150521 | 70 | 351 | 0.0 | 0.0 | 0.00 | 0.01 | 0.01 | 81 | 1017.0 |
| 20260906150417 | 70 | 66 | 0.0 | 0.0 | 0.00 | 0.01 | 0.01 | 81 | 1017.0 |
| 20260906150311 | 70 | 88 | 0.0 | 0.0 | 0.00 | 0.01 | 0.01 | 82 | 1016.9 |
| 20260906150207 | 70 | 91 | 0.0 | 0.0 | 0.00 | 0.01 | 0.01 | 82 | 1016.9 |
| 20260906150101 | 70 | 92 | 0.0 | 0.0 | 0.00 | 0.01 | 0.01 | 81 | 1017.0 |
| 20260906145959 | 69 | 82 | 0.0 | 0.0 | 0.00 | 0.01 | 0.01 | 81 | 1017.0 |
| 20260906145853 | 69 | 73 | 0.0 | 0.0 | 0.00 | 0.01 | 0.01 | 82 | 1016.9 |
| 20260906145749 | 69 | 57 | 0.0 | 0.0 | 0.00 | 0.01 | 0.01 | 83 | 1017.0 |
| 20260906145645 | 69 | 27 | 0.0 | 0.0 | 0.00 | 0.01 | 0.01 | 83 | 1016.9 |
| 20260906145539 | 69 | 71 | 0.0 | 0.0 | 0.00 | 0.01 | 0.01 | 83 | 1016.9 |
| 20260906145436 | 69 | 44 | 0.0 | 0.0 | 0.00 | 0.01 | 0.01 | 83 | 1016.9 |
| 20260906145334 | 69 | 88 | 0.0 | 0.0 | 0.00 | 0.01 | 0.01 | 84 | 1016.9 |
| 20260906145228 | 69 | 43 | 0.0 | 0.0 | 0.00 | 0.01 | 0.01 | 84 | 1016.9 |
| 20260906145125 | 69 | 42 | 0.0 | 0.0 | 0.00 | 0.01 | 0.01 | 83 | 1016.9 |
| 20260906145018 | 69 | 42 | 0.0 | 0.0 | 0.00 | 0.01 | 0.01 | 84 | 1016.8 |
| 20260906144912 | 69 | 42 | 0.0 | 0.0 | 0.00 | 0.01 | 0.01 | 84 | 1016.8 |
| 20260906144548 | 69 | 54 | 0.0 | 0.0 | 0.00 | 0.01 | 0.01 | 87 | 1016.8 |
| 20260906144445 | 69 | 37 | 0.0 | 0.0 | 0.00 | 0.01 | 0.01 | 87 | 1016.8 |
| 20260906144341 | 68 | 45 | 0.0 | 0.0 | 0.00 | 0.01 | 0.01 | 87 | 1016.8 |
| 20260906144234 | 68 | 36 | 0.0 | 0.0 | 0.00 | 0.01 | 0.01 | 88 | 1016.9 |
| 20260906143907 | 68 | 31 | 0.0 | 0.0 | 0.00 | 0.01 | 0.01 | 89 | 1016.9 |
| 20260906143802 | 68 | 31 | 0.0 | 0.0 | 0.00 | 0.01 | 0.01 | 89 | 1016.9 |
| 20260906143659 | 67 | 31 | 0.0 | 0.0 | 0.00 | 0.01 | 0.01 | 89 | 1016.9 |
| 20260906143555 | 67 | 18 | 0.0 | 0.0 | 0.00 | 0.01 | 0.01 | 89 | 1017.0 |
| 20260906143448 | 67 | 19 | 0.0 | 0.0 | 0.00 | 0.01 | 0.01 | 89 | 1016.9 |
| 20260906143342 | 67 | 26 | 0.0 | 0.0 | 0.00 | 0.01 | 0.01 | 90 | 1016.9 |
| 20260906143018 | 67 | 38 | 0.0 | 0.0 | 0.00 | 0.01 | 0.01 | 91 | 1016.8 |
| 20260906142915 | 67 | 38 | 0.0 | 0.0 | 0.00 | 0.01 | 0.01 | 91 | 1016.8 |
| 20260906142813 | 67 | 48 | 0.0 | 0.0 | 0.00 | 0.01 | 0.01 | 91 | 1016.8 |
| 20260906142711 | 67 | 24 | 0.0 | 0.0 | 0.00 | 0.01 | 0.01 | 92 | 1016.8 |
| 20260906142126 | 66 | 30 | 0.0 | 0.0 | 0.00 | 0.01 | 0.01 | 92 | 1016.7 |
| 20260906142020 | 66 | 51 | 0.0 | 0.0 | 0.00 | 0.01 | 0.01 | 92 | 1016.8 |
| 20260906141914 | 66 | 18 | 0.0 | 0.0 | 0.00 | 0.01 | 0.01 | 93 | 1016.7 |
| 20260906141809 | 66 | 24 | 0.0 | 0.0 | 0.00 | 0.01 | 0.01 | 93 | 1016.8 |
| 20260906141703 | 66 | 9 | 0.0 | 0.0 | 0.00 | 0.01 | 0.01 | 93 | 1016.8 |
| 20260906141600 | 66 | 20 | 0.0 | 0.0 | 0.00 | 0.01 | 0.01 | 94 | 1016.8 |
| 20260906141456 | 66 | 41 | 0.0 | 0.0 | 0.00 | 0.01 | 0.01 | 94 | 1016.8 |
| 20260906141353 | 65 | 43 | 0.0 | 0.0 | 0.00 | 0.01 | 0.01 | 94 | 1016.8 |
| 20260906141248 | 65 | 33 | 0.0 | 0.0 | 0.00 | 0.01 | 0.01 | 94 | 1016.8 |
| 20260906141145 | 65 | 19 | 0.0 | 0.0 | 0.00 | 0.01 | 0.01 | 94 | 1016.8 |
| 20260906141039 | 65 | 12 | 0.0 | 0.0 | 0.00 | 0.01 | 0.01 | 94 | 1016.9 |
| 20260906140712 | 65 | 355 | 0.0 | 0.0 | 0.00 | 0.01 | 0.01 | 94 | 1016.9 |
| 20260906140609 | 65 | 46 | 0.0 | 0.0 | 0.00 | 0.01 | 0.01 | 94 | 1016.9 |
| 20260906140506 | 65 | 46 | 0.0 | 0.0 | 0.00 | 0.01 | 0.01 | 94 | 1016.8 |
| 20260906140400 | 65 | 49 | 0.0 | 0.0 | 0.00 | 0.01 | 0.01 | 94 | 1016.8 |
| 20260906140254 | 65 | 32 | 0.0 | 0.0 | 0.00 | 0.01 | 0.01 | 94 | 1016.8 |
| 20260906140150 | 65 | 33 | 0.0 | 0.0 | 0.00 | 0.01 | 0.01 | 94 | 1016.8 |
| 20260906140042 | 65 | 49 | 0.0 | 0.0 | 0.00 | 0.01 | 0.01 | 94 | 1016.9 |
| 20260906135936 | 64 | 28 | 0.0 | 0.0 | 0.00 | 0.01 | 0.01 | 94 | 1016.9 |
| 20260906135831 | 64 | 28 | 0.0 | 0.0 | 0.00 | 0.01 | 0.01 | 94 | 1016.9 |
| 20260906135724 | 64 | 28 | 0.0 | 0.0 | 0.00 | 0.01 | 0.01 | 94 | 1016.9 |
| 20260906135620 | 64 | 355 | 0.0 | 0.0 | 0.00 | 0.01 | 0.01 | 95 | 1016.8 |
| 20260906135255 | 64 | 15 | 0.0 | 0.0 | 0.00 | 0.01 | 0.01 | 94 | 1016.8 |
| 20260906135151 | 64 | 17 | 0.0 | 0.0 | 0.00 | 0.01 | 0.01 | 95 | 1016.9 |
| 20260906135044 | 64 | 11 | 0.0 | 0.0 | 0.00 | 0.01 | 0.01 | 95 | 1016.9 |
| 20260906134937 | 64 | 54 | 0.0 | 0.0 | 0.00 | 0.01 | 0.01 | 95 | 1016.8 |
| 20260906134356 | 63 | 5 | 0.0 | 0.0 | 0.00 | 0.01 | 0.01 | 94 | 1016.8 |
| 20260906134251 | 63 | 11 | 0.0 | 0.0 | 0.00 | 0.01 | 0.01 | 94 | 1016.8 |
| 20260906134147 | 63 | 9 | 0.0 | 0.0 | 0.00 | 0.01 | 0.01 | 94 | 1016.9 |
| 20260906134043 | 63 | 9 | 0.0 | 0.0 | 0.00 | 0.01 | 0.01 | 94 | 1016.8 |
| 20260906133937 | 63 | 5 | 0.0 | 0.0 | 0.00 | 0.01 | 0.01 | 95 | 1016.9 |
| 20260906133831 | 63 | 31 | 0.0 | 0.0 | 0.00 | 0.01 | 0.01 | 94 | 1016.8 |
| 20260906133725 | 63 | 50 | 0.0 | 0.0 | 0.00 | 0.01 | 0.01 | 94 | 1016.8 |
| 20260906133620 | 63 | 59 | 0.0 | 0.0 | 0.00 | 0.01 | 0.01 | 94 | 1016.8 |
| 20260906133514 | 63 | 17 | 0.0 | 0.0 | 0.00 | 0.01 | 0.01 | 94 | 1016.8 |
| 20260906133410 | 63 | 52 | 0.0 | 0.0 | 0.00 | 0.01 | 0.01 | 94 | 1016.8 |
| 20260906133047 | 62 | 33 | 0.0 | 0.0 | 0.00 | 0.01 | 0.01 | 94 | 1016.8 |
| 20260906132944 | 62 | 34 | 0.0 | 0.0 | 0.00 | 0.01 | 0.01 | 94 | 1016.8 |
| 20260906132841 | 62 | 63 | 0.0 | 0.0 | 0.00 | 0.01 | 0.01 | 94 | 1016.8 |
| 20260906132736 | 62 | 43 | 0.0 | 0.0 | 0.00 | 0.01 | 0.01 | 94 | 1016.8 |
| 20260906132631 | 62 | 58 | 0.0 | 0.0 | 0.00 | 0.01 | 0.01 | 94 | 1016.8 |
| 20260906132526 | 62 | 77 | 0.0 | 0.0 | 0.00 | 0.01 | 0.01 | 94 | 1016.8 |
| 20260906132420 | 62 | 16 | 0.0 | 0.0 | 0.00 | 0.01 | 0.01 | 94 | 1016.8 |
| 20260906132315 | 62 | 29 | 0.0 | 0.0 | 0.00 | 0.01 | 0.01 | 94 | 1016.8 |
| 20260906132210 | 62 | 5 | 0.0 | 0.0 | 0.00 | 0.01 | 0.01 | 94 | 1016.8 |
| 20260906132102 | 62 | 41 | 0.0 | 0.0 | 0.00 | 0.01 | 0.01 | 94 | 1016.8 |
| 20260906131957 | 62 | 46 | 0.0 | 0.0 | 0.00 | 0.01 | 0.01 | 94 | 1016.8 |
| 20260906131854 | 62 | 51 | 0.0 | 0.0 | 0.00 | 0.01 | 0.01 | 94 | 1016.9 |
| 20260906131747 | 62 | 51 | 0.0 | 0.0 | 0.00 | 0.01 | 0.01 | 94 | 1016.8 |
| 20260906131641 | 62 | 74 | 0.0 | 0.0 | 0.00 | 0.01 | 0.01 | 94 | 1016.8 |
| 20260906131538 | 62 | 57 | 0.0 | 0.0 | 0.00 | 0.01 | 0.01 | 94 | 1016.9 |
| 20260906131436 | 61 | 57 | 0.0 | 0.0 | 0.00 | 0.01 | 0.01 | 94 | 1016.9 |
| 20260906131331 | 61 | 35 | 0.0 | 0.0 | 0.00 | 0.01 | 0.01 | 94 | 1016.9 |
| 20260906131227 | 61 | 34 | 0.0 | 0.0 | 0.00 | 0.01 | 0.01 | 94 | 1016.9 |
| 20260906131122 | 61 | 17 | 0.0 | 0.0 | 0.00 | 0.01 | 0.01 | 94 | 1017.0 |
| 20260906131015 | 61 | 21 | 0.0 | 0.0 | 0.00 | 0.01 | 0.01 | 94 | 1016.9 |
| 20260906130912 | 61 | 29 | 0.0 | 0.0 | 0.00 | 0.01 | 0.01 | 94 | 1016.9 |
| 20260906130811 | 61 | 38 | 0.0 | 0.0 | 0.00 | 0.01 | 0.01 | 94 | 1016.9 |
| 20260906130706 | 61 | 38 | 0.0 | 0.0 | 0.00 | 0.01 | 0.01 | 94 | 1016.8 |
| 20260906130603 | 61 | 14 | 0.0 | 0.0 | 0.00 | 0.01 | 0.01 | 94 | 1016.8 |
| 20260906130457 | 61 | 19 | 0.0 | 0.0 | 0.00 | 0.01 | 0.01 | 94 | 1016.8 |
| 20260906130351 | 61 | 46 | 0.0 | 0.0 | 0.00 | 0.01 | 0.01 | 94 | 1016.8 |
| 20260906130247 | 61 | 60 | 0.0 | 0.0 | 0.00 | 0.01 | 0.01 | 94 | 1016.7 |
| 20260906130140 | 61 | 21 | 0.0 | 0.0 | 0.00 | 0.01 | 0.01 | 94 | 1016.8 |
| 20260906130033 | 61 | 20 | 0.0 | 0.0 | 0.00 | 0.01 | 0.01 | 94 | 1016.8 |
| 20260906125926 | 61 | 30 | 0.0 | 0.0 | 0.00 | 0.01 | 0.01 | 94 | 1016.7 |
| 20260906125824 | 61 | 44 | 0.0 | 0.0 | 0.00 | 0.01 | 0.01 | 94 | 1016.8 |
| 20260906125720 | 61 | 44 | 0.0 | 0.0 | 0.00 | 0.01 | 0.01 | 94 | 1016.7 |
| 20260906125614 | 61 | 22 | 0.0 | 0.0 | 0.00 | 0.01 | 0.01 | 94 | 1016.7 |
| 20260906125248 | 61 | 15 | 0.0 | 0.0 | 0.00 | 0.01 | 0.01 | 94 | 1016.6 |
| 20260906125141 | 61 | 24 | 0.0 | 0.0 | 0.00 | 0.01 | 0.01 | 94 | 1016.7 |
| 20260906125037 | 61 | 44 | 0.0 | 0.0 | 0.00 | 0.01 | 0.01 | 94 | 1016.6 |
| 20260906124930 | 60 | 13 | 0.0 | 0.0 | 0.00 | 0.01 | 0.01 | 94 | 1016.6 |
| 20260906124824 | 60 | 34 | 0.0 | 0.0 | 0.00 | 0.01 | 0.01 | 94 | 1016.6 |
| 20260906124722 | 60 | 15 | 0.0 | 0.0 | 0.00 | 0.01 | 0.01 | 94 | 1016.6 |
| 20260906124617 | 60 | 15 | 0.0 | 0.0 | 0.00 | 0.01 | 0.01 | 94 | 1016.6 |
| 20260906124513 | 60 | 15 | 0.0 | 0.0 | 0.00 | 0.01 | 0.01 | 94 | 1016.6 |
| 20260906124409 | 60 | 22 | 0.0 | 0.0 | 0.00 | 0.01 | 0.01 | 94 | 1016.5 |
| 20260906124302 | 60 | 32 | 0.0 | 0.0 | 0.00 | 0.01 | 0.01 | 94 | 1016.5 |
| 20260906124155 | 60 | 33 | 0.0 | 0.0 | 0.00 | 0.01 | 0.01 | 94 | 1016.5 |
| 20260906124052 | 60 | 34 | 0.0 | 0.0 | 0.00 | 0.01 | 0.01 | 94 | 1016.4 |
| 20260906123948 | 60 | 348 | 0.0 | 0.0 | 0.00 | 0.01 | 0.01 | 94 | 1016.4 |
| 20260906123841 | 60 | 43 | 0.0 | 0.0 | 0.00 | 0.01 | 0.01 | 94 | 1016.4 |
| 20260906123735 | 60 | 32 | 0.0 | 0.0 | 0.00 | 0.01 | 0.01 | 94 | 1016.4 |
| 20260906123408 | 60 | 49 | 0.0 | 0.0 | 0.00 | 0.01 | 0.01 | 94 | 1016.5 |
| 20260906123301 | 60 | 31 | 0.0 | 0.0 | 0.00 | 0.01 | 0.01 | 94 | 1016.4 |
| 20260906122933 | 60 | 66 | 0.0 | 0.0 | 0.00 | 0.01 | 0.01 | 94 | 1016.4 |
| 20260906122613 | 60 | 75 | 0.0 | 0.0 | 0.00 | 0.01 | 0.01 | 94 | 1016.3 |
| 20260906122506 | 60 | 70 | 0.0 | 0.0 | 0.00 | 0.01 | 0.01 | 94 | 1016.3 |
| 20260906122400 | 60 | 52 | 0.0 | 0.0 | 0.00 | 0.01 | 0.01 | 94 | 1016.2 |
| 20260906122258 | 60 | 65 | 0.0 | 0.0 | 0.00 | 0.01 | 0.01 | 94 | 1016.3 |
| 20260906122154 | 60 | 70 | 0.0 | 0.0 | 0.00 | 0.01 | 0.01 | 94 | 1016.2 |
| 20260906122052 | 60 | 50 | 0.0 | 0.0 | 0.00 | 0.01 | 0.01 | 94 | 1016.2 |
| 20260906121949 | 60 | 74 | 0.0 | 0.0 | 0.00 | 0.01 | 0.01 | 94 | 1016.2 |
| 20260906121843 | 60 | 25 | 0.0 | 0.0 | 0.00 | 0.01 | 0.01 | 94 | 1016.2 |
| 20260906121741 | 60 | 26 | 0.0 | 0.0 | 0.00 | 0.01 | 0.01 | 94 | 1016.2 |
| 20260906121636 | 60 | 39 | 0.0 | 0.0 | 0.00 | 0.01 | 0.01 | 94 | 1016.1 |
| 20260906121533 | 60 | 40 | 0.0 | 0.0 | 0.00 | 0.01 | 0.01 | 94 | 1016.2 |
| 20260906121426 | 60 | 55 | 0.0 | 0.0 | 0.00 | 0.01 | 0.01 | 94 | 1016.2 |
| 20260906121102 | 59 | 43 | 0.0 | 0.0 | 0.00 | 0.01 | 0.01 | 94 | 1016.2 |
| 20260906121000 | 59 | 43 | 0.0 | 0.0 | 0.00 | 0.01 | 0.01 | 94 | 1016.2 |
| 20260906120858 | 59 | 43 | 0.0 | 0.0 | 0.00 | 0.01 | 0.01 | 94 | 1016.2 |
| 20260906120756 | 59 | 49 | 0.0 | 0.0 | 0.00 | 0.01 | 0.01 | 94 | 1016.1 |
| 20260906120651 | 59 | 56 | 0.0 | 0.0 | 0.00 | 0.01 | 0.01 | 94 | 1016.1 |
| 20260906120106 | 59 | 75 | 0.0 | 0.0 | 0.00 | 0.01 | 0.01 | 94 | 1016.0 |
| 20260906115744 | 59 | 65 | 0.0 | 0.0 | 0.00 | 0.01 | 0.01 | 94 | 1015.9 |
| 20260906115420 | 59 | 37 | 0.0 | 0.0 | 0.00 | 0.01 | 0.01 | 94 | 1016.0 |
| 20260906115313 | 59 | 36 | 0.0 | 0.0 | 0.00 | 0.01 | 0.01 | 94 | 1016.0 |
| 20260906115209 | 59 | 36 | 0.0 | 0.0 | 0.00 | 0.01 | 0.01 | 94 | 1016.0 |
| 20260906115103 | 59 | 49 | 0.0 | 0.0 | 0.00 | 0.01 | 0.01 | 94 | 1016.0 |
| 20260906114959 | 58 | 34 | 0.0 | 0.0 | 0.00 | 0.01 | 0.01 | 94 | 1016.0 |
| 20260906114857 | 58 | 35 | 0.0 | 0.0 | 0.00 | 0.01 | 0.01 | 94 | 1016.0 |
| 20260906114752 | 58 | 30 | 0.0 | 0.0 | 0.00 | 0.01 | 0.01 | 94 | 1015.9 |
| 20260906114650 | 58 | 31 | 0.0 | 0.0 | 0.00 | 0.01 | 0.01 | 94 | 1015.9 |
| 20260906114544 | 58 | 31 | 0.0 | 0.0 | 0.00 | 0.01 | 0.01 | 94 | 1015.9 |
| 20260906114441 | 58 | 31 | 0.0 | 0.0 | 0.00 | 0.01 | 0.01 | 94 | 1015.9 |
| 20260906114337 | 58 | 31 | 0.0 | 0.0 | 0.00 | 0.01 | 0.01 | 94 | 1015.9 |
| 20260906114231 | 58 | 30 | 0.0 | 0.0 | 0.00 | 0.01 | 0.01 | 94 | 1015.9 |
| 20260906114127 | 58 | 31 | 0.0 | 0.0 | 0.00 | 0.01 | 0.01 | 94 | 1015.9 |
| 20260906114023 | 58 | 31 | 0.0 | 0.0 | 0.00 | 0.01 | 0.01 | 94 | 1015.9 |
| 20260906113916 | 58 | 31 | 0.0 | 0.0 | 0.00 | 0.01 | 0.01 | 94 | 1015.9 |
| 20260906113810 | 58 | 34 | 0.0 | 0.0 | 0.00 | 0.01 | 0.01 | 94 | 1015.9 |
| 20260906113447 | 58 | 57 | 0.0 | 0.0 | 0.00 | 0.01 | 0.01 | 94 | 1015.8 |
| 20260906113340 | 58 | 52 | 0.0 | 0.0 | 0.00 | 0.01 | 0.01 | 94 | 1015.7 |
| 20260906113238 | 58 | 51 | 0.0 | 0.0 | 0.00 | 0.01 | 0.01 | 94 | 1015.7 |
| 20260906112915 | 58 | 51 | 0.0 | 0.0 | 0.00 | 0.01 | 0.01 | 94 | 1015.7 |
| 20260906112811 | 58 | 51 | 0.0 | 0.0 | 0.00 | 0.01 | 0.01 | 94 | 1015.6 |
| 20260906112448 | 58 | 52 | 0.0 | 0.0 | 0.00 | 0.01 | 0.01 | 94 | 1015.6 |
| 20260906112345 | 58 | 52 | 0.0 | 0.0 | 0.00 | 0.01 | 0.01 | 94 | 1015.5 |
| 20260906112240 | 58 | 52 | 0.0 | 0.0 | 0.00 | 0.01 | 0.01 | 94 | 1015.6 |
| 20260906112138 | 58 | 52 | 0.0 | 0.0 | 0.00 | 0.01 | 0.01 | 94 | 1015.6 |
| 20260906112033 | 58 | 52 | 0.0 | 0.0 | 0.00 | 0.01 | 0.01 | 94 | 1015.5 |
| 20260906111932 | 58 | 53 | 0.0 | 0.0 | 0.00 | 0.01 | 0.01 | 94 | 1015.6 |
| 20260906111825 | 58 | 26 | 0.0 | 0.0 | 0.00 | 0.01 | 0.01 | 94 | 1015.6 |
| 20260906111723 | 58 | 26 | 0.0 | 0.0 | 0.00 | 0.01 | 0.01 | 94 | 1015.5 |
| 20260906111618 | 58 | 26 | 0.0 | 0.0 | 0.00 | 0.01 | 0.01 | 94 | 1015.6 |
| 20260906111254 | 58 | 55 | 0.0 | 0.0 | 0.00 | 0.01 | 0.01 | 94 | 1015.6 |
| 20260906111151 | 58 | 49 | 0.0 | 0.0 | 0.00 | 0.01 | 0.01 | 94 | 1015.5 |
| 20260906111045 | 58 | 44 | 0.0 | 0.0 | 0.00 | 0.01 | 0.01 | 94 | 1015.5 |
| 20260906110940 | 58 | 44 | 0.0 | 0.0 | 0.00 | 0.01 | 0.01 | 94 | 1015.5 |
| 20260906110834 | 58 | 44 | 0.0 | 0.0 | 0.00 | 0.01 | 0.01 | 94 | 1015.5 |
| 20260906110728 | 58 | 44 | 0.0 | 0.0 | 0.00 | 0.01 | 0.01 | 94 | 1015.5 |
| 20260906110624 | 58 | 44 | 0.0 | 0.0 | 0.00 | 0.01 | 0.01 | 94 | 1015.4 |
| 20260906110518 | 58 | 44 | 0.0 | 0.0 | 0.00 | 0.01 | 0.01 | 94 | 1015.5 |
| 20260906110412 | 58 | 44 | 0.0 | 0.0 | 0.00 | 0.01 | 0.01 | 94 | 1015.4 |
| 20260906110306 | 58 | 44 | 0.0 | 0.0 | 0.00 | 0.01 | 0.01 | 94 | 1015.4 |
| 20260906110203 | 58 | 45 | 0.0 | 0.0 | 0.00 | 0.01 | 0.01 | 94 | 1015.6 |
| 20260906105843 | 58 | 41 | 0.0 | 0.0 | 0.00 | 0.01 | 0.01 | 94 | 1015.6 |
| 20260906105735 | 58 | 41 | 0.0 | 0.0 | 0.00 | 0.01 | 0.01 | 94 | 1015.6 |
| 20260906105628 | 58 | 41 | 0.0 | 0.0 | 0.00 | 0.01 | 0.01 | 94 | 1015.6 |
| 20260906105307 | 58 | 42 | 0.0 | 0.0 | 0.00 | 0.01 | 0.01 | 94 | 1015.5 |
| 20260906105203 | 58 | 41 | 0.0 | 0.0 | 0.00 | 0.01 | 0.01 | 94 | 1015.5 |
| 20260906105057 | 58 | 41 | 0.0 | 0.0 | 0.00 | 0.01 | 0.01 | 94 | 1015.5 |
| 20260906104953 | 58 | 41 | 0.0 | 0.0 | 0.00 | 0.01 | 0.01 | 94 | 1015.4 |
| 20260906104851 | 58 | 22 | 0.0 | 0.0 | 0.00 | 0.01 | 0.01 | 94 | 1015.4 |
| 20260906104744 | 58 | 22 | 0.0 | 0.0 | 0.00 | 0.01 | 0.01 | 94 | 1015.4 |
| 20260906104638 | 58 | 21 | 0.0 | 0.0 | 0.00 | 0.01 | 0.01 | 94 | 1015.4 |
| 20260906104532 | 58 | 21 | 0.0 | 0.0 | 0.00 | 0.01 | 0.01 | 94 | 1015.4 |
| 20260906104428 | 58 | 21 | 0.0 | 0.0 | 0.00 | 0.01 | 0.01 | 94 | 1015.4 |
| 20260906104322 | 58 | 20 | 0.0 | 0.0 | 0.00 | 0.01 | 0.01 | 94 | 1015.4 |
| 20260906104220 | 58 | 19 | 0.0 | 0.0 | 0.00 | 0.01 | 0.01 | 94 | 1015.3 |
| 20260906104114 | 58 | 19 | 0.0 | 0.0 | 0.00 | 0.01 | 0.01 | 94 | 1015.3 |
| 20260906104011 | 58 | 19 | 0.0 | 0.0 | 0.00 | 0.01 | 0.01 | 94 | 1015.3 |
| 20260906103909 | 58 | 19 | 0.0 | 0.0 | 0.00 | 0.01 | 0.01 | 94 | 1015.2 |
| 20260906103804 | 58 | 19 | 0.0 | 0.0 | 0.00 | 0.01 | 0.01 | 94 | 1015.2 |
| 20260906103659 | 58 | 17 | 0.0 | 0.0 | 0.00 | 0.01 | 0.01 | 94 | 1015.2 |
| 20260906103556 | 58 | 17 | 0.0 | 0.0 | 0.00 | 0.01 | 0.01 | 94 | 1015.2 |
| 20260906103452 | 58 | 25 | 0.0 | 0.0 | 0.00 | 0.01 | 0.01 | 94 | 1015.2 |
| 20260906103124 | 58 | 22 | 0.0 | 0.0 | 0.00 | 0.01 | 0.01 | 94 | 1015.2 |
| 20260906103019 | 58 | 23 | 0.0 | 0.0 | 0.00 | 0.01 | 0.01 | 94 | 1015.2 |
| 20260906102916 | 58 | 22 | 0.0 | 0.0 | 0.00 | 0.01 | 0.01 | 94 | 1015.1 |
| 20260906102811 | 58 | 22 | 0.0 | 0.0 | 0.00 | 0.01 | 0.01 | 94 | 1015.1 |
| 20260906102705 | 58 | 22 | 0.0 | 0.0 | 0.00 | 0.01 | 0.01 | 94 | 1015.1 |
| 20260906102345 | 58 | 22 | 0.0 | 0.0 | 0.00 | 0.01 | 0.01 | 94 | 1015.1 |
| 20260906102242 | 57 | 22 | 0.0 | 0.0 | 0.00 | 0.01 | 0.01 | 94 | 1015.0 |
| 20260906102138 | 58 | 22 | 0.0 | 0.0 | 0.00 | 0.01 | 0.01 | 94 | 1015.0 |
| 20260906101817 | 57 | 22 | 0.0 | 0.0 | 0.00 | 0.01 | 0.01 | 94 | 1015.0 |
| 20260906101714 | 58 | 22 | 0.0 | 0.0 | 0.00 | 0.01 | 0.01 | 94 | 1015.0 |
| 20260906101607 | 58 | 22 | 0.0 | 0.0 | 0.00 | 0.01 | 0.01 | 94 | 1015.0 |
| 20260906101501 | 58 | 15 | 0.0 | 0.0 | 0.00 | 0.01 | 0.01 | 94 | 1014.9 |
| 20260906101358 | 58 | 15 | 0.0 | 0.0 | 0.00 | 0.01 | 0.01 | 94 | 1014.9 |
| 20260906101254 | 58 | 15 | 0.0 | 0.0 | 0.00 | 0.01 | 0.01 | 94 | 1014.9 |
| 20260906101147 | 58 | 15 | 0.0 | 0.0 | 0.00 | 0.01 | 0.01 | 94 | 1014.9 |
| 20260906101045 | 57 | 30 | 0.0 | 0.0 | 0.00 | 0.01 | 0.01 | 94 | 1014.9 |
| 20260906100721 | 57 | 44 | 0.0 | 0.0 | 0.00 | 0.01 | 0.01 | 94 | 1014.9 |
| 20260906100613 | 57 | 44 | 0.0 | 0.0 | 0.00 | 0.01 | 0.01 | 94 | 1014.9 |
| 20260906100509 | 57 | 35 | 0.0 | 0.0 | 0.00 | 0.01 | 0.01 | 94 | 1014.9 |
| 20260906100403 | 57 | 35 | 0.0 | 0.0 | 0.00 | 0.01 | 0.01 | 94 | 1014.8 |
| 20260906100256 | 57 | 35 | 0.0 | 0.0 | 0.00 | 0.01 | 0.01 | 94 | 1014.9 |
| 20260906100150 | 57 | 35 | 0.0 | 0.0 | 0.00 | 0.01 | 0.01 | 94 | 1014.8 |
| 20260906095826 | 57 | 35 | 0.0 | 0.0 | 0.00 | 0.01 | 0.01 | 94 | 1014.9 |
| 20260906095723 | 57 | 35 | 0.0 | 0.0 | 0.00 | 0.01 | 0.01 | 94 | 1014.9 |
| 20260906095616 | 57 | 35 | 0.0 | 0.0 | 0.00 | 0.01 | 0.01 | 94 | 1014.9 |
| 20260906095514 | 57 | 35 | 0.0 | 0.0 | 0.00 | 0.01 | 0.01 | 94 | 1014.9 |
| 20260906095406 | 57 | 18 | 0.0 | 0.0 | 0.00 | 0.01 | 0.01 | 94 | 1014.9 |
| 20260906095305 | 57 | 18 | 0.0 | 0.0 | 0.00 | 0.01 | 0.01 | 94 | 1014.9 |
| 20260906095159 | 57 | 18 | 0.0 | 0.0 | 0.00 | 0.01 | 0.01 | 94 | 1014.9 |
| 20260906095055 | 57 | 17 | 0.0 | 0.0 | 0.00 | 0.01 | 0.01 | 94 | 1014.8 |
| 20260906094948 | 57 | 17 | 0.0 | 0.0 | 0.00 | 0.01 | 0.01 | 94 | 1014.9 |
| 20260906094845 | 57 | 17 | 0.0 | 0.0 | 0.00 | 0.01 | 0.01 | 94 | 1014.9 |
| 20260906094741 | 56 | 17 | 0.0 | 0.0 | 0.00 | 0.01 | 0.01 | 94 | 1014.9 |
| 20260906094414 | 56 | 28 | 0.0 | 0.0 | 0.00 | 0.01 | 0.01 | 94 | 1014.8 |
| 20260906094049 | 56 | 48 | 0.0 | 0.0 | 0.00 | 0.01 | 0.01 | 94 | 1014.8 |
| 20260906093944 | 56 | 48 | 0.0 | 0.0 | 0.00 | 0.01 | 0.01 | 94 | 1014.8 |
| 20260906093838 | 56 | 48 | 0.0 | 0.0 | 0.00 | 0.01 | 0.01 | 94 | 1014.8 |
| 20260906093737 | 56 | 48 | 0.0 | 0.0 | 0.00 | 0.01 | 0.01 | 93 | 1014.8 |
| 20260906093630 | 55 | 48 | 0.0 | 0.0 | 0.00 | 0.01 | 0.01 | 93 | 1014.8 |
| 20260906093524 | 55 | 48 | 0.0 | 0.0 | 0.00 | 0.01 | 0.01 | 93 | 1014.9 |
| 20260906093417 | 55 | 49 | 0.0 | 0.0 | 0.00 | 0.01 | 0.01 | 93 | 1014.9 |
| 20260906093055 | 55 | 48 | 0.0 | 0.0 | 0.00 | 0.01 | 0.01 | 93 | 1014.9 |
| 20260906092952 | 55 | 48 | 0.0 | 0.0 | 0.00 | 0.01 | 0.01 | 93 | 1015.0 |
| 20260906092629 | 55 | 48 | 0.0 | 0.0 | 0.00 | 0.01 | 0.01 | 93 | 1015.0 |
| 20260906092526 | 55 | 48 | 0.0 | 0.0 | 0.00 | 0.01 | 0.01 | 93 | 1015.0 |
| 20260906092420 | 55 | 48 | 0.0 | 0.0 | 0.00 | 0.01 | 0.01 | 93 | 1015.0 |
| 20260906092313 | 56 | 48 | 0.0 | 0.0 | 0.00 | 0.01 | 0.01 | 93 | 1015.0 |
| 20260906091948 | 56 | 48 | 0.0 | 0.0 | 0.00 | 0.01 | 0.01 | 93 | 1015.1 |
| 20260906090930 | 56 | 48 | 0.0 | 0.0 | 0.00 | 0.01 | 0.01 | 93 | 1015.0 |
| 20260906090827 | 56 | 48 | 0.0 | 0.0 | 0.00 | 0.01 | 0.01 | 93 | 1014.9 |
| 20260906090720 | 56 | 48 | 0.0 | 0.0 | 0.00 | 0.01 | 0.01 | 93 | 1014.9 |
| 20260906090612 | 56 | 48 | 0.0 | 0.0 | 0.00 | 0.01 | 0.01 | 93 | 1015.0 |
| 20260906090507 | 56 | 48 | 0.0 | 0.0 | 0.00 | 0.01 | 0.01 | 93 | 1014.9 |
| 20260906090139 | 56 | 48 | 0.0 | 0.0 | 0.00 | 0.01 | 0.01 | 93 | 1015.0 |
| 20260906085815 | 56 | 48 | 0.0 | 0.0 | 0.00 | 0.01 | 0.01 | 93 | 1015.0 |
| 20260906085713 | 56 | 48 | 0.0 | 0.0 | 0.00 | 0.01 | 0.01 | 93 | 1015.0 |
| 20260906085608 | 56 | 48 | 0.0 | 0.0 | 0.00 | 0.01 | 0.01 | 93 | 1015.1 |
| 20260906085502 | 56 | 48 | 0.0 | 0.0 | 0.00 | 0.01 | 0.01 | 93 | 1015.0 |
| 20260906085358 | 56 | 48 | 0.0 | 0.0 | 0.00 | 0.01 | 0.01 | 93 | 1015.0 |
| 20260906085250 | 56 | 48 | 0.0 | 0.0 | 0.00 | 0.01 | 0.01 | 93 | 1015.1 |
| 20260906085145 | 56 | 48 | 0.0 | 0.0 | 0.00 | 0.01 | 0.01 | 93 | 1015.0 |
| 20260906085039 | 56 | 48 | 0.0 | 0.0 | 0.00 | 0.01 | 0.01 | 93 | 1015.0 |
| 20260906084932 | 56 | 48 | 0.0 | 0.0 | 0.00 | 0.01 | 0.01 | 93 | 1015.0 |
| 20260906084830 | 56 | 48 | 0.0 | 0.0 | 0.00 | 0.01 | 0.01 | 93 | 1015.0 |
| 20260906084728 | 56 | 48 | 0.0 | 0.0 | 0.00 | 0.01 | 0.01 | 93 | 1015.0 |
| 20260906084624 | 56 | 48 | 0.0 | 0.0 | 0.00 | 0.01 | 0.01 | 93 | 1015.0 |
| 20260906084519 | 56 | 48 | 0.0 | 0.0 | 0.00 | 0.01 | 0.01 | 93 | 1015.0 |
| 20260906084414 | 56 | 48 | 0.0 | 0.0 | 0.00 | 0.01 | 0.01 | 93 | 1014.9 |
| 20260906084051 | 56 | 48 | 0.0 | 0.0 | 0.00 | 0.01 | 0.01 | 93 | 1014.9 |
| 20260906083945 | 56 | 48 | 0.0 | 0.0 | 0.00 | 0.01 | 0.01 | 93 | 1014.9 |
| 20260906083838 | 56 | 48 | 0.0 | 0.0 | 0.00 | 0.01 | 0.01 | 93 | 1014.9 |
| 20260906083736 | 56 | 48 | 0.0 | 0.0 | 0.00 | 0.01 | 0.01 | 93 | 1014.9 |
| 20260906083633 | 56 | 48 | 0.0 | 0.0 | 0.00 | 0.01 | 0.01 | 93 | 1014.9 |
| 20260906083529 | 56 | 48 | 0.0 | 0.0 | 0.00 | 0.01 | 0.01 | 93 | 1014.9 |
| 20260906083427 | 56 | 48 | 0.0 | 0.0 | 0.00 | 0.01 | 0.01 | 93 | 1014.9 |
| 20260906083323 | 56 | 48 | 0.0 | 0.0 | 0.00 | 0.01 | 0.01 | 93 | 1014.9 |
| 20260906083221 | 56 | 48 | 0.0 | 0.0 | 0.00 | 0.01 | 0.01 | 93 | 1014.9 |
| 20260906082855 | 56 | 48 | 0.0 | 0.0 | 0.00 | 0.01 | 0.01 | 93 | 1014.9 |
| 20260906082749 | 56 | 48 | 0.0 | 0.0 | 0.00 | 0.01 | 0.01 | 93 | 1014.9 |
| 20260906082647 | 56 | 48 | 0.0 | 0.0 | 0.00 | 0.01 | 0.01 | 93 | 1014.9 |
| 20260906082544 | 56 | 48 | 0.0 | 0.0 | 0.00 | 0.01 | 0.01 | 93 | 1014.9 |
| 20260906082220 | 56 | 48 | 0.0 | 0.0 | 0.00 | 0.01 | 0.01 | 93 | 1014.8 |
| 20260906082114 | 56 | 48 | 0.0 | 0.0 | 0.00 | 0.01 | 0.01 | 93 | 1014.9 |
| 20260906082006 | 56 | 48 | 0.0 | 0.0 | 0.00 | 0.01 | 0.01 | 93 | 1014.9 |
| 20260906081904 | 56 | 48 | 0.0 | 0.0 | 0.00 | 0.01 | 0.01 | 93 | 1014.9 |
| 20260906081801 | 56 | 48 | 0.0 | 0.0 | 0.00 | 0.01 | 0.01 | 93 | 1014.9 |
| 20260906081658 | 56 | 48 | 0.0 | 0.0 | 0.00 | 0.01 | 0.01 | 93 | 1014.8 |
| 20260906081555 | 56 | 48 | 0.0 | 0.0 | 0.00 | 0.01 | 0.01 | 93 | 1014.8 |
| 20260906081452 | 56 | 48 | 0.0 | 0.0 | 0.00 | 0.01 | 0.01 | 93 | 1014.8 |
| 20260906081344 | 56 | 48 | 0.0 | 0.0 | 0.00 | 0.01 | 0.01 | 92 | 1014.8 |
| 20260906081240 | 56 | 48 | 0.0 | 0.0 | 0.00 | 0.01 | 0.01 | 93 | 1014.8 |
| 20260906081136 | 56 | 48 | 0.0 | 0.0 | 0.00 | 0.01 | 0.01 | 93 | 1014.8 |
| 20260906081029 | 56 | 48 | 0.0 | 0.0 | 0.00 | 0.01 | 0.01 | 93 | 1014.8 |
| 20260906080926 | 56 | 48 | 0.0 | 0.0 | 0.00 | 0.01 | 0.01 | 93 | 1014.8 |
| 20260906080821 | 56 | 48 | 0.0 | 0.0 | 0.00 | 0.01 | 0.01 | 93 | 1014.8 |
| 20260906080714 | 56 | 48 | 0.0 | 0.0 | 0.00 | 0.01 | 0.01 | 93 | 1014.8 |
| 20260906080607 | 56 | 48 | 0.0 | 0.0 | 0.00 | 0.01 | 0.01 | 93 | 1014.9 |
| 20260906080501 | 56 | 48 | 0.0 | 0.0 | 0.00 | 0.01 | 0.01 | 93 | 1014.9 |
| 20260906080359 | 56 | 48 | 0.0 | 0.0 | 0.00 | 0.01 | 0.01 | 93 | 1014.9 |
| 20260906080252 | 56 | 48 | 0.0 | 0.0 | 0.00 | 0.01 | 0.01 | 93 | 1014.9 |
| 20260906080147 | 56 | 48 | 0.0 | 0.0 | 0.00 | 0.01 | 0.01 | 93 | 1014.9 |
| 20260906080043 | 56 | 48 | 0.0 | 0.0 | 0.00 | 0.01 | 0.01 | 93 | 1014.9 |
| 20260906075939 | 56 | 48 | 0.0 | 0.0 | 0.00 | 0.01 | 0.01 | 93 | 1014.9 |
| 20260906075832 | 56 | 48 | 0.0 | 0.0 | 0.00 | 0.01 | 0.01 | 93 | 1014.9 |
| 20260906075725 | 56 | 48 | 0.0 | 0.0 | 0.00 | 0.01 | 0.01 | 93 | 1014.9 |
| 20260906075618 | 56 | 48 | 0.0 | 0.0 | 0.00 | 0.01 | 0.01 | 93 | 1014.9 |
| 20260906075513 | 56 | 48 | 0.0 | 0.0 | 0.00 | 0.01 | 0.01 | 93 | 1014.9 |
| 20260906075409 | 56 | 48 | 0.0 | 0.0 | 0.00 | 0.01 | 0.01 | 93 | 1015.0 |
| 20260906075306 | 56 | 48 | 0.0 | 0.0 | 0.00 | 0.01 | 0.01 | 93 | 1014.9 |
| 20260906074941 | 56 | 48 | 0.0 | 0.0 | 0.00 | 0.01 | 0.01 | 93 | 1014.9 |
| 20260906074836 | 56 | 48 | 0.0 | 0.0 | 0.00 | 0.01 | 0.01 | 93 | 1014.8 |
| 20260906074510 | 56 | 48 | 0.0 | 0.0 | 0.00 | 0.01 | 0.01 | 93 | 1014.8 |
| 20260906074147 | 56 | 48 | 0.0 | 0.0 | 0.00 | 0.01 | 0.01 | 92 | 1014.8 |
| 20260906074044 | 56 | 48 | 0.0 | 0.0 | 0.00 | 0.01 | 0.01 | 92 | 1014.8 |
| 20260906073939 | 56 | 48 | 0.0 | 0.0 | 0.00 | 0.01 | 0.01 | 92 | 1014.8 |
| 20260906073611 | 56 | 48 | 0.0 | 0.0 | 0.00 | 0.01 | 0.01 | 92 | 1014.7 |
| 20260906073504 | 56 | 48 | 0.0 | 0.0 | 0.00 | 0.01 | 0.01 | 92 | 1014.7 |
| 20260906073356 | 56 | 48 | 0.0 | 0.0 | 0.00 | 0.01 | 0.01 | 92 | 1014.7 |
| 20260906073253 | 56 | 48 | 0.0 | 0.0 | 0.00 | 0.01 | 0.01 | 92 | 1014.7 |
| 20260906073151 | 56 | 48 | 0.0 | 0.0 | 0.00 | 0.01 | 0.01 | 92 | 1014.7 |
| 20260906072829 | 57 | 48 | 0.0 | 0.0 | 0.00 | 0.01 | 0.01 | 92 | 1014.6 |
| 20260906072723 | 57 | 48 | 0.0 | 0.0 | 0.00 | 0.01 | 0.01 | 92 | 1014.6 |
| 20260906071915 | 57 | 48 | 0.0 | 0.0 | 0.00 | 0.01 | 0.01 | 92 | 1014.7 |
| 20260906071810 | 57 | 48 | 0.0 | 0.0 | 0.00 | 0.01 | 0.01 | 92 | 1014.7 |
| 20260906071704 | 57 | 48 | 0.0 | 0.0 | 0.00 | 0.01 | 0.01 | 92 | 1014.7 |
| 20260906071337 | 57 | 48 | 0.0 | 0.0 | 0.00 | 0.01 | 0.01 | 92 | 1014.7 |
| 20260906071234 | 57 | 48 | 0.0 | 0.0 | 0.00 | 0.01 | 0.01 | 93 | 1014.7 |
| 20260906071128 | 57 | 48 | 0.0 | 0.0 | 0.00 | 0.01 | 0.01 | 93 | 1014.7 |
| 20260906071025 | 57 | 48 | 0.0 | 0.0 | 0.00 | 0.01 | 0.01 | 93 | 1014.7 |
| 20260906070923 | 57 | 48 | 0.0 | 0.0 | 0.00 | 0.01 | 0.01 | 93 | 1014.7 |
| 20260906070820 | 57 | 48 | 0.0 | 0.0 | 0.00 | 0.01 | 0.01 | 93 | 1014.6 |
| 20260906070713 | 57 | 48 | 0.0 | 0.0 | 0.00 | 0.01 | 0.01 | 93 | 1014.6 |
| 20260906070607 | 57 | 48 | 0.0 | 0.0 | 0.00 | 0.01 | 0.01 | 93 | 1014.6 |
| 20260906070503 | 57 | 48 | 0.0 | 0.0 | 0.00 | 0.01 | 0.01 | 93 | 1014.6 |
| 20260906070357 | 57 | 48 | 0.0 | 0.0 | 0.00 | 0.01 | 0.01 | 93 | 1014.6 |
| 20260906070252 | 57 | 48 | 0.0 | 0.0 | 0.00 | 0.01 | 0.01 | 93 | 1014.6 |
| 20260906070148 | 57 | 48 | 0.0 | 0.0 | 0.00 | 0.01 | 0.01 | 93 | 1014.6 |
| 20260906070042 | 57 | 48 | 0.0 | 0.0 | 0.00 | 0.01 | 0.01 | 93 | 1014.6 |
| 20260906065936 | 57 | 48 | 0.0 | 0.0 | 0.00 | 0.01 | 0.01 | 93 | 1014.6 |
| 20260906065835 | 57 | 48 | 0.0 | 0.0 | 0.00 | 0.01 | 0.01 | 93 | 1014.6 |
| 20260906065728 | 57 | 48 | 0.0 | 0.0 | 0.00 | 0.01 | 0.01 | 93 | 1014.5 |
| 20260906065622 | 57 | 48 | 0.0 | 0.0 | 0.00 | 0.01 | 0.01 | 93 | 1014.5 |
| 20260906065519 | 57 | 48 | 0.0 | 0.0 | 0.00 | 0.01 | 0.01 | 93 | 1014.6 |
| 20260906065416 | 57 | 48 | 0.0 | 0.0 | 0.00 | 0.01 | 0.01 | 93 | 1014.6 |
| 20260906065313 | 57 | 48 | 0.0 | 0.0 | 0.00 | 0.01 | 0.01 | 93 | 1014.6 |
| 20260906065208 | 57 | 48 | 0.0 | 0.0 | 0.00 | 0.01 | 0.01 | 92 | 1014.6 |
| 20260906065105 | 57 | 48 | 0.0 | 0.0 | 0.00 | 0.01 | 0.01 | 92 | 1014.6 |
| 20260906064740 | 57 | 48 | 0.0 | 0.0 | 0.00 | 0.01 | 0.01 | 92 | 1014.6 |
| 20260906064634 | 57 | 48 | 0.0 | 0.0 | 0.00 | 0.01 | 0.01 | 92 | 1014.5 |
| 20260906064532 | 57 | 48 | 0.0 | 0.0 | 0.00 | 0.01 | 0.01 | 92 | 1014.5 |
| 20260906064426 | 57 | 48 | 0.0 | 0.0 | 0.00 | 0.01 | 0.01 | 92 | 1014.5 |
| 20260906064319 | 57 | 48 | 0.0 | 0.0 | 0.00 | 0.01 | 0.01 | 92 | 1014.4 |
| 20260906063951 | 57 | 48 | 0.0 | 0.0 | 0.00 | 0.01 | 0.01 | 92 | 1014.4 |
| 20260906063145 | 58 | 48 | 0.0 | 0.0 | 0.00 | 0.00 | 0.00 | 93 | 1014.5 |
| 20260906062820 | 58 | 48 | 0.0 | 0.0 | 0.00 | 0.00 | 0.00 | 93 | 1014.5 |
| 20260906062716 | 58 | 48 | 0.0 | 0.0 | 0.00 | 0.00 | 0.00 | 93 | 1014.5 |
| 20260906062352 | 58 | 48 | 0.0 | 0.0 | 0.00 | 0.00 | 0.00 | 93 | 1014.5 |
| 20260906062247 | 58 | 48 | 0.0 | 0.0 | 0.00 | 0.00 | 0.00 | 93 | 1014.5 |
| 20260906062144 | 58 | 48 | 0.0 | 0.0 | 0.00 | 0.00 | 0.00 | 93 | 1014.5 |
| 20260906062041 | 58 | 48 | 0.0 | 0.0 | 0.00 | 0.00 | 0.00 | 93 | 1014.5 |
| 20260906061936 | 58 | 48 | 0.0 | 0.0 | 0.00 | 0.00 | 0.00 | 93 | 1014.5 |
| 20260906061830 | 58 | 48 | 0.0 | 0.0 | 0.00 | 0.00 | 0.00 | 93 | 1014.5 |
| 20260906061723 | 58 | 48 | 0.0 | 0.0 | 0.00 | 0.00 | 0.00 | 93 | 1014.5 |
| 20260906061620 | 58 | 48 | 0.0 | 0.0 | 0.00 | 0.00 | 0.00 | 93 | 1014.5 |
| 20260906061256 | 58 | 49 | 0.0 | 0.0 | 0.00 | 0.00 | 0.00 | 93 | 1014.4 |
| 20260906061149 | 58 | 50 | 0.0 | 0.0 | 0.00 | 0.00 | 0.00 | 92 | 1014.4 |
| 20260906061046 | 58 | 56 | 0.0 | 0.0 | 0.00 | 0.00 | 0.00 | 92 | 1014.4 |
| 20260906060942 | 58 | 56 | 0.0 | 0.0 | 0.00 | 0.00 | 0.00 | 92 | 1014.4 |
| 20260906060835 | 58 | 57 | 0.0 | 0.0 | 0.00 | 0.00 | 0.00 | 92 | 1014.4 |
| 20260906060730 | 58 | 57 | 0.0 | 0.0 | 0.00 | 0.00 | 0.00 | 92 | 1014.4 |
| 20260906060624 | 58 | 57 | 0.0 | 0.0 | 0.00 | 0.00 | 0.00 | 92 | 1014.4 |
| 20260906060518 | 58 | 57 | 0.0 | 0.0 | 0.00 | 0.00 | 0.00 | 92 | 1014.5 |
| 20260906060412 | 58 | 57 | 0.0 | 0.0 | 0.00 | 0.00 | 0.00 | 92 | 1014.5 |
| 20260906060306 | 58 | 57 | 0.0 | 0.0 | 0.00 | 0.00 | 0.00 | 92 | 1014.5 |
| 20260906060204 | 58 | 57 | 0.0 | 0.0 | 0.00 | 0.00 | 0.00 | 92 | 1014.4 |
| 20260906060056 | 58 | 57 | 0.0 | 0.0 | 0.00 | 0.00 | 0.00 | 92 | 1014.4 |
| 20260906055954 | 58 | 57 | 0.0 | 0.0 | 0.00 | 0.00 | 0.00 | 92 | 1014.4 |
| 20260906055850 | 58 | 57 | 0.0 | 0.0 | 0.00 | 0.00 | 0.00 | 92 | 1014.4 |
| 20260906055745 | 58 | 57 | 0.0 | 0.0 | 0.00 | 0.00 | 0.00 | 92 | 1014.4 |
| 20260906055426 | 58 | 57 | 0.0 | 0.0 | 0.00 | 0.00 | 0.00 | 92 | 1014.3 |
| 20260906055319 | 58 | 57 | 0.0 | 0.0 | 0.00 | 0.00 | 0.00 | 92 | 1014.3 |
| 20260906055217 | 58 | 57 | 0.0 | 0.0 | 0.00 | 0.00 | 0.00 | 92 | 1014.3 |
| 20260906054850 | 58 | 57 | 0.0 | 0.0 | 0.00 | 0.00 | 0.00 | 92 | 1014.3 |
| 20260906054747 | 58 | 57 | 0.0 | 0.0 | 0.00 | 0.00 | 0.00 | 92 | 1014.3 |
| 20260906054640 | 58 | 57 | 0.0 | 0.0 | 0.00 | 0.00 | 0.00 | 92 | 1014.3 |
| 20260906054534 | 58 | 57 | 0.0 | 0.0 | 0.00 | 0.00 | 0.00 | 92 | 1014.3 |
| 20260906054432 | 58 | 57 | 0.0 | 0.0 | 0.00 | 0.00 | 0.00 | 92 | 1014.3 |
| 20260906054326 | 58 | 57 | 0.0 | 0.0 | 0.00 | 0.00 | 0.00 | 92 | 1014.3 |
| 20260906054224 | 58 | 57 | 0.0 | 0.0 | 0.00 | 0.00 | 0.00 | 92 | 1014.3 |
| 20260906054121 | 58 | 57 | 0.0 | 0.0 | 0.00 | 0.00 | 0.00 | 92 | 1014.3 |
| 20260906054016 | 58 | 57 | 0.0 | 0.0 | 0.00 | 0.00 | 0.00 | 92 | 1014.3 |
| 20260906053910 | 58 | 57 | 0.0 | 0.0 | 0.00 | 0.00 | 0.00 | 92 | 1014.3 |
| 20260906053808 | 58 | 57 | 0.0 | 0.0 | 0.00 | 0.00 | 0.00 | 92 | 1014.3 |
| 20260906053704 | 58 | 57 | 0.0 | 0.0 | 0.00 | 0.00 | 0.00 | 92 | 1014.2 |
| 20260906053341 | 58 | 57 | 0.0 | 0.0 | 0.00 | 0.00 | 0.00 | 92 | 1014.1 |
| 20260906053238 | 58 | 57 | 0.0 | 0.0 | 0.00 | 0.00 | 0.00 | 92 | 1014.1 |
| 20260906053132 | 58 | 57 | 0.0 | 0.0 | 0.00 | 0.00 | 0.00 | 92 | 1014.1 |
| 20260906053028 | 58 | 57 | 0.0 | 0.0 | 0.00 | 0.00 | 0.00 | 92 | 1014.1 |
| 20260906052705 | 58 | 57 | 0.0 | 0.0 | 0.00 | 0.00 | 0.00 | 91 | 1014.0 |
| 20260906052602 | 58 | 57 | 0.0 | 0.0 | 0.00 | 0.00 | 0.00 | 91 | 1014.0 |
| 20260906052455 | 58 | 57 | 0.0 | 0.0 | 0.00 | 0.00 | 0.00 | 91 | 1014.0 |
| 20260906052349 | 58 | 57 | 0.0 | 0.0 | 0.00 | 0.00 | 0.00 | 91 | 1014.0 |
| 20260906052242 | 58 | 57 | 0.0 | 0.0 | 0.00 | 0.00 | 0.00 | 91 | 1014.0 |
| 20260906052135 | 58 | 57 | 0.0 | 0.0 | 0.00 | 0.00 | 0.00 | 91 | 1014.0 |
| 20260906052028 | 59 | 57 | 0.0 | 0.0 | 0.00 | 0.00 | 0.00 | 91 | 1014.0 |
| 20260906051438 | 59 | 57 | 0.0 | 0.0 | 0.00 | 0.00 | 0.00 | 91 | 1014.0 |
| 20260906051112 | 59 | 57 | 0.0 | 0.0 | 0.00 | 0.00 | 0.00 | 91 | 1014.0 |
| 20260906050528 | 59 | 57 | 0.0 | 0.0 | 0.00 | 0.00 | 0.00 | 91 | 1014.1 |
| 20260906050423 | 59 | 57 | 0.0 | 0.0 | 0.00 | 0.00 | 0.00 | 91 | 1014.2 |
| 20260906050316 | 60 | 57 | 0.0 | 0.0 | 0.00 | 0.00 | 0.00 | 91 | 1014.2 |
| 20260906050210 | 60 | 57 | 0.0 | 0.0 | 0.00 | 0.00 | 0.00 | 91 | 1014.2 |
| 20260906050106 | 60 | 57 | 0.0 | 0.0 | 0.00 | 0.00 | 0.00 | 91 | 1014.2 |
| 20260906050002 | 60 | 57 | 0.0 | 0.0 | 0.00 | 0.00 | 0.00 | 91 | 1014.2 |
| 20260906045859 | 60 | 57 | 0.0 | 0.0 | 0.00 | 0.01 | 0.00 | 91 | 1014.3 |
| 20260906045752 | 60 | 57 | 0.0 | 0.0 | 0.00 | 0.01 | 0.00 | 91 | 1014.3 |
| 20260906045646 | 60 | 57 | 0.0 | 0.0 | 0.00 | 0.01 | 0.00 | 91 | 1014.3 |
| 20260906045544 | 60 | 57 | 0.0 | 0.0 | 0.00 | 0.01 | 0.00 | 91 | 1014.3 |
| 20260906045438 | 60 | 57 | 0.0 | 0.0 | 0.00 | 0.01 | 0.00 | 91 | 1014.3 |
| 20260906045334 | 60 | 57 | 0.0 | 0.0 | 0.00 | 0.01 | 0.00 | 91 | 1014.3 |
| 20260906045228 | 60 | 57 | 0.0 | 0.0 | 0.00 | 0.01 | 0.00 | 91 | 1014.3 |
| 20260906045121 | 60 | 57 | 0.0 | 0.0 | 0.00 | 0.01 | 0.00 | 91 | 1014.3 |
| 20260906045017 | 60 | 57 | 0.0 | 0.0 | 0.00 | 0.01 | 0.00 | 91 | 1014.2 |
| 20260906044914 | 60 | 57 | 0.0 | 0.0 | 0.00 | 0.01 | 0.00 | 91 | 1014.2 |
| 20260906044811 | 60 | 57 | 0.0 | 0.0 | 0.00 | 0.01 | 0.00 | 91 | 1014.3 |
| 20260906044704 | 60 | 57 | 0.0 | 0.0 | 0.00 | 0.01 | 0.00 | 91 | 1014.2 |
| 20260906044600 | 60 | 57 | 0.0 | 0.0 | 0.00 | 0.01 | 0.00 | 91 | 1014.2 |
| 20260906044235 | 60 | 57 | 0.0 | 0.0 | 0.00 | 0.01 | 0.00 | 91 | 1014.2 |
| 20260906044128 | 60 | 57 | 0.0 | 0.0 | 0.00 | 0.01 | 0.00 | 91 | 1014.2 |
| 20260906044021 | 60 | 57 | 0.0 | 0.0 | 0.00 | 0.01 | 0.00 | 91 | 1014.2 |
| 20260906043914 | 60 | 57 | 0.0 | 0.0 | 0.00 | 0.01 | 0.00 | 91 | 1014.2 |
| 20260906043807 | 60 | 57 | 0.0 | 0.0 | 0.00 | 0.02 | 0.00 | 90 | 1014.2 |
| 20260906043703 | 60 | 57 | 0.0 | 0.0 | 0.00 | 0.02 | 0.00 | 90 | 1014.2 |
| 20260906042858 | 61 | 57 | 0.0 | 0.0 | 0.00 | 0.02 | 0.00 | 90 | 1014.1 |
| 20260906042755 | 61 | 57 | 0.0 | 0.0 | 0.00 | 0.02 | 0.00 | 90 | 1014.1 |
| 20260906042651 | 61 | 57 | 0.0 | 0.0 | 0.00 | 0.02 | 0.00 | 90 | 1014.1 |
| 20260906042548 | 61 | 57 | 0.0 | 0.0 | 0.00 | 0.02 | 0.00 | 90 | 1014.1 |
| 20260906042442 | 61 | 57 | 0.0 | 0.0 | 0.00 | 0.02 | 0.00 | 90 | 1014.1 |
| 20260906042337 | 61 | 57 | 0.0 | 0.0 | 0.00 | 0.02 | 0.00 | 90 | 1014.0 |
| 20260906042233 | 61 | 57 | 0.0 | 0.0 | 0.00 | 0.02 | 0.00 | 90 | 1014.0 |
| 20260906042130 | 61 | 57 | 0.0 | 0.0 | 0.00 | 0.02 | 0.00 | 90 | 1014.0 |
| 20260906041543 | 62 | 57 | 0.0 | 0.0 | 0.00 | 0.02 | 0.00 | 90 | 1013.9 |
| 20260906041221 | 62 | 57 | 0.0 | 0.0 | 0.00 | 0.02 | 0.00 | 90 | 1014.0 |
| 20260906041118 | 62 | 57 | 0.0 | 0.0 | 0.00 | 0.02 | 0.00 | 90 | 1014.0 |
| 20260906040754 | 62 | 57 | 0.0 | 0.0 | 0.00 | 0.02 | 0.00 | 89 | 1014.2 |
| 20260906040646 | 62 | 57 | 0.0 | 0.0 | 0.00 | 0.02 | 0.00 | 90 | 1014.2 |
| 20260906040543 | 62 | 57 | 0.0 | 0.0 | 0.00 | 0.02 | 0.00 | 89 | 1014.2 |
| 20260906040220 | 62 | 57 | 0.0 | 0.0 | 0.00 | 0.02 | 0.00 | 89 | 1014.2 |
| 20260906035852 | 62 | 57 | 0.0 | 0.0 | 0.00 | 0.02 | 0.02 | 89 | 1014.2 |
| 20260906035748 | 62 | 57 | 0.0 | 0.0 | 0.00 | 0.02 | 0.02 | 89 | 1014.2 |
| 20260906035644 | 62 | 57 | 0.0 | 0.0 | 0.00 | 0.02 | 0.02 | 89 | 1014.1 |
| 20260906035539 | 62 | 57 | 0.0 | 0.0 | 0.00 | 0.02 | 0.02 | 89 | 1014.1 |
| 20260906035436 | 63 | 57 | 0.0 | 0.0 | 0.00 | 0.02 | 0.02 | 88 | 1014.1 |
| 20260906035329 | 63 | 57 | 0.0 | 0.0 | 0.00 | 0.02 | 0.02 | 88 | 1014.1 |
| 20260906035225 | 63 | 57 | 0.0 | 0.0 | 0.00 | 0.02 | 0.02 | 88 | 1014.1 |
| 20260906035122 | 63 | 57 | 0.0 | 0.0 | 0.00 | 0.02 | 0.02 | 88 | 1014.1 |
| 20260906035015 | 63 | 57 | 0.0 | 0.0 | 0.00 | 0.02 | 0.02 | 88 | 1014.1 |
| 20260906034912 | 63 | 57 | 0.0 | 0.0 | 0.00 | 0.02 | 0.02 | 88 | 1014.0 |
| 20260906034807 | 63 | 57 | 0.0 | 0.0 | 0.00 | 0.02 | 0.02 | 88 | 1014.0 |
| 20260906034702 | 63 | 57 | 0.0 | 0.0 | 0.00 | 0.02 | 0.02 | 88 | 1014.1 |
| 20260906034559 | 63 | 57 | 0.0 | 0.0 | 0.00 | 0.02 | 0.02 | 88 | 1014.1 |
| 20260906034455 | 63 | 57 | 0.0 | 0.0 | 0.00 | 0.02 | 0.02 | 88 | 1014.1 |
| 20260906034350 | 63 | 57 | 0.0 | 0.0 | 0.00 | 0.02 | 0.02 | 88 | 1014.0 |
| 20260906034247 | 63 | 57 | 0.0 | 0.0 | 0.00 | 0.02 | 0.02 | 88 | 1014.0 |
| 20260906034142 | 63 | 57 | 0.0 | 0.0 | 0.00 | 0.02 | 0.02 | 87 | 1014.0 |
| 20260906034039 | 63 | 57 | 0.0 | 0.0 | 0.00 | 0.02 | 0.02 | 87 | 1014.1 |
| 20260906033933 | 63 | 57 | 0.0 | 0.0 | 0.00 | 0.02 | 0.02 | 87 | 1014.0 |
| 20260906033826 | 63 | 57 | 0.0 | 0.0 | 0.00 | 0.02 | 0.02 | 87 | 1014.0 |
| 20260906033722 | 63 | 57 | 0.0 | 0.0 | 0.00 | 0.02 | 0.02 | 87 | 1014.1 |
| 20260906033617 | 64 | 57 | 0.0 | 0.0 | 0.00 | 0.02 | 0.02 | 87 | 1014.0 |
| 20260906033513 | 64 | 57 | 0.0 | 0.0 | 0.00 | 0.02 | 0.02 | 87 | 1014.0 |
| 20260906033406 | 64 | 57 | 0.0 | 0.0 | 0.00 | 0.02 | 0.02 | 87 | 1014.0 |
| 20260906033259 | 64 | 57 | 0.0 | 0.0 | 0.00 | 0.02 | 0.02 | 87 | 1014.0 |
| 20260906033156 | 64 | 57 | 0.0 | 0.0 | 0.00 | 0.02 | 0.02 | 87 | 1013.9 |
| 20260906032828 | 64 | 57 | 0.0 | 0.0 | 0.00 | 0.02 | 0.02 | 86 | 1013.9 |
| 20260906032723 | 64 | 57 | 0.0 | 0.0 | 0.00 | 0.02 | 0.02 | 86 | 1013.9 |
| 20260906032620 | 64 | 57 | 0.0 | 0.0 | 0.00 | 0.02 | 0.02 | 86 | 1013.9 |
| 20260906032517 | 64 | 57 | 0.0 | 0.0 | 0.00 | 0.02 | 0.02 | 86 | 1013.9 |
| 20260906032414 | 64 | 57 | 0.0 | 0.0 | 0.00 | 0.02 | 0.02 | 86 | 1014.0 |
| 20260906032309 | 64 | 57 | 0.0 | 0.0 | 0.00 | 0.02 | 0.02 | 86 | 1014.0 |
| 20260906032205 | 64 | 57 | 0.0 | 0.0 | 0.00 | 0.02 | 0.02 | 86 | 1013.9 |
| 20260906031840 | 65 | 57 | 0.0 | 0.0 | 0.00 | 0.02 | 0.02 | 86 | 1013.9 |
| 20260906031736 | 65 | 57 | 0.0 | 0.0 | 0.00 | 0.02 | 0.02 | 86 | 1013.9 |
| 20260906031633 | 65 | 57 | 0.0 | 0.0 | 0.00 | 0.02 | 0.02 | 86 | 1013.9 |
| 20260906031305 | 65 | 57 | 0.0 | 0.0 | 0.00 | 0.02 | 0.02 | 86 | 1013.8 |
| 20260906031203 | 65 | 57 | 0.0 | 0.0 | 0.00 | 0.02 | 0.02 | 86 | 1013.8 |
| 20260906031056 | 65 | 57 | 0.0 | 0.0 | 0.00 | 0.02 | 0.02 | 86 | 1013.8 |
| 20260906030508 | 65 | 57 | 0.0 | 0.0 | 0.00 | 0.02 | 0.02 | 86 | 1013.7 |
| 20260906030142 | 65 | 57 | 0.0 | 0.0 | 0.00 | 0.02 | 0.02 | 87 | 1013.7 |
| 20260906030035 | 65 | 57 | 0.0 | 0.0 | 0.00 | 0.02 | 0.02 | 87 | 1013.7 |
| 20260906025927 | 65 | 57 | 0.0 | 0.0 | 0.00 | 0.02 | 0.02 | 87 | 1013.7 |
| 20260906025821 | 65 | 57 | 0.0 | 0.0 | 0.00 | 0.02 | 0.02 | 87 | 1013.7 |
| 20260906025714 | 65 | 57 | 0.0 | 0.0 | 0.00 | 0.02 | 0.02 | 87 | 1013.7 |
| 20260906025609 | 65 | 57 | 0.0 | 0.0 | 0.00 | 0.02 | 0.02 | 88 | 1013.7 |
| 20260906025507 | 65 | 57 | 0.0 | 0.0 | 0.00 | 0.02 | 0.02 | 88 | 1013.7 |
| 20260906025138 | 65 | 57 | 0.0 | 0.0 | 0.00 | 0.02 | 0.02 | 88 | 1013.7 |
| 20260906025034 | 65 | 57 | 0.0 | 0.0 | 0.00 | 0.02 | 0.02 | 88 | 1013.7 |
| 20260906024931 | 65 | 57 | 0.0 | 0.0 | 0.00 | 0.02 | 0.02 | 88 | 1013.7 |
| 20260906024826 | 65 | 57 | 0.0 | 0.0 | 0.00 | 0.02 | 0.02 | 88 | 1013.7 |
| 20260906024721 | 65 | 57 | 0.0 | 0.0 | 0.00 | 0.02 | 0.02 | 89 | 1013.6 |
| 20260906024617 | 65 | 57 | 0.0 | 0.0 | 0.00 | 0.02 | 0.02 | 89 | 1013.7 |
| 20260906024250 | 65 | 57 | 0.0 | 0.0 | 0.00 | 0.02 | 0.02 | 89 | 1013.6 |
| 20260906024143 | 65 | 57 | 0.0 | 0.0 | 0.00 | 0.02 | 0.02 | 90 | 1013.6 |
| 20260906024036 | 65 | 57 | 0.0 | 0.0 | 0.00 | 0.02 | 0.02 | 90 | 1013.6 |
| 20260906023929 | 65 | 57 | 0.0 | 0.0 | 0.00 | 0.02 | 0.02 | 90 | 1013.6 |
| 20260906023825 | 65 | 57 | 0.0 | 0.0 | 0.00 | 0.02 | 0.02 | 90 | 1013.6 |
| 20260906023721 | 65 | 57 | 0.0 | 0.0 | 0.00 | 0.02 | 0.02 | 90 | 1013.6 |
| 20260906023617 | 65 | 57 | 0.0 | 0.0 | 0.00 | 0.02 | 0.02 | 90 | 1013.6 |
| 20260906023512 | 65 | 57 | 0.0 | 0.0 | 0.00 | 0.02 | 0.02 | 90 | 1013.6 |
| 20260906023407 | 65 | 57 | 0.0 | 0.0 | 0.00 | 0.02 | 0.02 | 90 | 1013.6 |
| 20260906023305 | 65 | 57 | 0.0 | 0.0 | 0.00 | 0.02 | 0.02 | 91 | 1013.5 |
| 20260906023157 | 65 | 57 | 0.0 | 0.0 | 0.00 | 0.02 | 0.02 | 91 | 1013.5 |
| 20260906023051 | 65 | 57 | 0.0 | 0.0 | 0.00 | 0.02 | 0.02 | 91 | 1013.5 |
| 20260906022726 | 66 | 57 | 0.0 | 0.0 | 0.00 | 0.02 | 0.02 | 91 | 1013.5 |
| 20260906022619 | 65 | 57 | 0.0 | 0.0 | 0.00 | 0.02 | 0.02 | 91 | 1013.4 |
| 20260906022513 | 66 | 57 | 0.0 | 0.0 | 0.00 | 0.02 | 0.02 | 91 | 1013.5 |
| 20260906022410 | 66 | 57 | 0.0 | 0.0 | 0.00 | 0.02 | 0.02 | 91 | 1013.4 |
| 20260906022306 | 66 | 57 | 0.0 | 0.0 | 0.00 | 0.02 | 0.02 | 91 | 1013.4 |
| 20260906022200 | 66 | 57 | 0.0 | 0.0 | 0.00 | 0.02 | 0.02 | 91 | 1013.4 |
| 20260906022053 | 66 | 77 | 0.0 | 0.0 | 0.00 | 0.02 | 0.02 | 91 | 1013.4 |
| 20260906021506 | 66 | 77 | 0.0 | 0.0 | 0.00 | 0.02 | 0.02 | 91 | 1013.3 |
| 20260906021400 | 66 | 77 | 0.0 | 0.0 | 0.00 | 0.02 | 0.02 | 91 | 1013.3 |
| 20260906021253 | 66 | 77 | 0.0 | 0.0 | 0.00 | 0.02 | 0.02 | 91 | 1013.2 |
| 20260906021148 | 66 | 77 | 0.0 | 0.0 | 0.00 | 0.02 | 0.02 | 91 | 1013.2 |
| 20260906021042 | 66 | 77 | 0.0 | 0.0 | 0.00 | 0.02 | 0.02 | 91 | 1013.2 |
| 20260906020939 | 66 | 77 | 0.0 | 0.0 | 0.00 | 0.02 | 0.02 | 91 | 1013.2 |
| 20260906020835 | 66 | 77 | 0.0 | 0.0 | 0.00 | 0.02 | 0.02 | 91 | 1013.1 |
| 20260906020509 | 66 | 77 | 0.0 | 0.0 | 0.00 | 0.02 | 0.02 | 92 | 1013.1 |
| 20260906020401 | 66 | 77 | 0.0 | 0.0 | 0.00 | 0.02 | 0.02 | 92 | 1013.1 |
| 20260906020035 | 67 | 77 | 0.0 | 0.0 | 0.00 | 0.02 | 0.02 | 92 | 1013.0 |
| 20260906015930 | 67 | 77 | 0.0 | 0.0 | 0.00 | 0.02 | 0.02 | 92 | 1013.0 |
| 20260906015824 | 67 | 77 | 0.0 | 0.0 | 0.00 | 0.02 | 0.02 | 91 | 1013.0 |
| 20260906015722 | 67 | 77 | 0.0 | 0.0 | 0.00 | 0.02 | 0.02 | 91 | 1013.0 |
| 20260906015616 | 67 | 77 | 0.0 | 0.0 | 0.00 | 0.02 | 0.02 | 91 | 1013.0 |
| 20260906015511 | 67 | 77 | 0.0 | 0.0 | 0.00 | 0.02 | 0.02 | 91 | 1013.1 |
| 20260906015408 | 67 | 77 | 0.0 | 0.0 | 0.00 | 0.02 | 0.02 | 91 | 1013.1 |
| 20260906015300 | 67 | 77 | 0.0 | 0.0 | 0.00 | 0.02 | 0.02 | 91 | 1013.1 |
| 20260906015153 | 67 | 77 | 0.0 | 0.0 | 0.00 | 0.02 | 0.02 | 91 | 1013.1 |
| 20260906015047 | 67 | 77 | 0.0 | 0.0 | 0.00 | 0.02 | 0.02 | 91 | 1013.0 |
| 20260906014939 | 67 | 77 | 0.0 | 0.0 | 0.00 | 0.02 | 0.02 | 91 | 1013.0 |
| 20260906014833 | 67 | 77 | 0.0 | 0.0 | 0.00 | 0.02 | 0.02 | 91 | 1013.0 |
| 20260906014508 | 67 | 77 | 0.0 | 0.0 | 0.00 | 0.02 | 0.02 | 91 | 1013.0 |
| 20260906014402 | 67 | 77 | 0.0 | 0.0 | 0.00 | 0.02 | 0.02 | 91 | 1013.0 |
| 20260906014300 | 67 | 77 | 0.0 | 0.0 | 0.00 | 0.02 | 0.02 | 91 | 1013.0 |
| 20260906013936 | 67 | 77 | 0.0 | 0.0 | 0.00 | 0.02 | 0.02 | 90 | 1013.0 |
| 20260906013829 | 67 | 77 | 0.0 | 0.0 | 0.00 | 0.02 | 0.02 | 91 | 1012.9 |
| 20260906013725 | 67 | 77 | 0.0 | 0.0 | 0.00 | 0.02 | 0.02 | 90 | 1012.9 |
| 20260906013618 | 67 | 77 | 0.0 | 0.0 | 0.00 | 0.02 | 0.02 | 90 | 1012.9 |
| 20260906013038 | 67 | 77 | 0.0 | 0.0 | 0.00 | 0.02 | 0.02 | 90 | 1012.8 |
| 20260906012711 | 67 | 77 | 0.0 | 0.0 | 0.00 | 0.02 | 0.02 | 90 | 1012.8 |
| 20260906012604 | 67 | 77 | 0.0 | 0.0 | 0.00 | 0.02 | 0.02 | 90 | 1012.8 |
| 20260906012459 | 68 | 77 | 0.0 | 0.0 | 0.00 | 0.02 | 0.02 | 90 | 1012.8 |
| 20260906012356 | 68 | 77 | 0.0 | 0.0 | 0.00 | 0.02 | 0.02 | 90 | 1012.7 |
| 20260906012249 | 68 | 77 | 0.0 | 0.0 | 0.00 | 0.02 | 0.02 | 90 | 1012.8 |
| 20260906012144 | 68 | 77 | 0.0 | 0.0 | 0.00 | 0.02 | 0.02 | 90 | 1012.8 |
| 20260906012038 | 68 | 77 | 0.0 | 0.0 | 0.00 | 0.02 | 0.02 | 90 | 1012.7 |
| 20260906011936 | 68 | 77 | 0.0 | 0.0 | 0.00 | 0.02 | 0.02 | 90 | 1012.7 |
| 20260906011831 | 68 | 77 | 0.0 | 0.0 | 0.00 | 0.02 | 0.02 | 90 | 1012.7 |
| 20260906011505 | 68 | 77 | 0.0 | 0.0 | 0.00 | 0.02 | 0.02 | 90 | 1012.7 |
| 20260906011358 | 68 | 77 | 0.0 | 0.0 | 0.00 | 0.02 | 0.02 | 90 | 1012.7 |
| 20260906011253 | 68 | 77 | 0.0 | 0.0 | 0.00 | 0.02 | 0.02 | 90 | 1012.7 |
| 20260906011151 | 68 | 77 | 0.0 | 0.0 | 0.00 | 0.02 | 0.02 | 90 | 1012.7 |
| 20260906011047 | 68 | 77 | 0.0 | 0.0 | 0.00 | 0.02 | 0.02 | 90 | 1012.6 |
| 20260906010945 | 68 | 77 | 0.0 | 0.0 | 0.00 | 0.02 | 0.02 | 90 | 1012.6 |
| 20260906010839 | 69 | 77 | 0.0 | 0.0 | 0.00 | 0.02 | 0.02 | 90 | 1012.6 |
| 20260906010519 | 69 | 77 | 0.0 | 0.0 | 0.00 | 0.02 | 0.02 | 90 | 1012.6 |
| 20260906010155 | 69 | 77 | 0.0 | 0.0 | 0.00 | 0.02 | 0.02 | 90 | 1012.6 |
| 20260906010050 | 69 | 77 | 0.0 | 0.0 | 0.00 | 0.02 | 0.02 | 90 | 1012.5 |
| 20260906005948 | 69 | 77 | 0.0 | 0.0 | 0.00 | 0.02 | 0.02 | 89 | 1012.5 |
| 20260906005844 | 69 | 77 | 0.0 | 0.0 | 0.00 | 0.02 | 0.02 | 89 | 1012.5 |
| 20260906005740 | 69 | 77 | 0.0 | 0.0 | 0.00 | 0.02 | 0.02 | 89 | 1012.5 |
| 20260906005634 | 69 | 77 | 0.0 | 0.0 | 0.00 | 0.02 | 0.02 | 89 | 1012.5 |
| 20260906005531 | 69 | 77 | 0.0 | 0.0 | 0.00 | 0.02 | 0.02 | 89 | 1012.5 |
| 20260906005424 | 69 | 77 | 0.0 | 0.0 | 0.00 | 0.02 | 0.02 | 89 | 1012.4 |
| 20260906005321 | 69 | 77 | 0.0 | 0.0 | 0.00 | 0.02 | 0.02 | 89 | 1012.4 |
| 20260906004954 | 70 | 77 | 0.0 | 0.0 | 0.00 | 0.02 | 0.02 | 89 | 1012.3 |
| 20260906004849 | 70 | 77 | 0.0 | 0.0 | 0.00 | 0.02 | 0.02 | 89 | 1012.4 |
| 20260906004747 | 70 | 77 | 0.0 | 0.0 | 0.00 | 0.02 | 0.02 | 89 | 1012.4 |
| 20260906004643 | 70 | 77 | 0.0 | 0.0 | 0.00 | 0.02 | 0.02 | 89 | 1012.3 |
| 20260906004536 | 70 | 77 | 0.0 | 0.0 | 0.00 | 0.02 | 0.02 | 89 | 1012.3 |
| 20260906004432 | 70 | 77 | 0.0 | 0.0 | 0.00 | 0.02 | 0.02 | 89 | 1012.4 |
| 20260906004329 | 70 | 77 | 0.0 | 0.0 | 0.00 | 0.02 | 0.02 | 89 | 1012.4 |
| 20260906004226 | 70 | 77 | 0.0 | 0.0 | 0.00 | 0.02 | 0.02 | 88 | 1012.3 |
| 20260906004124 | 70 | 77 | 0.0 | 0.0 | 0.00 | 0.02 | 0.02 | 88 | 1012.3 |
| 20260906004020 | 70 | 77 | 0.0 | 0.0 | 0.00 | 0.02 | 0.02 | 88 | 1012.3 |
| 20260906003917 | 70 | 77 | 0.0 | 0.0 | 0.00 | 0.02 | 0.02 | 88 | 1012.3 |
| 20260906003815 | 70 | 77 | 0.0 | 0.0 | 0.00 | 0.02 | 0.02 | 88 | 1012.3 |
| 20260906003711 | 70 | 77 | 0.0 | 0.0 | 0.00 | 0.02 | 0.02 | 88 | 1012.4 |
| 20260906003603 | 70 | 77 | 0.0 | 0.0 | 0.00 | 0.02 | 0.02 | 88 | 1012.3 |
| 20260906003500 | 70 | 77 | 0.0 | 0.0 | 0.00 | 0.02 | 0.02 | 88 | 1012.3 |
| 20260906003357 | 70 | 77 | 0.0 | 0.0 | 0.00 | 0.02 | 0.02 | 88 | 1012.3 |
| 20260906003254 | 70 | 77 | 0.0 | 0.0 | 0.00 | 0.02 | 0.02 | 88 | 1012.3 |
| 20260906002927 | 71 | 77 | 0.0 | 0.0 | 0.00 | 0.02 | 0.02 | 88 | 1012.2 |
| 20260906002823 | 71 | 77 | 0.0 | 0.0 | 0.00 | 0.02 | 0.02 | 88 | 1012.2 |
| 20260906002718 | 71 | 77 | 0.0 | 0.0 | 0.00 | 0.02 | 0.02 | 88 | 1012.2 |
| 20260906002616 | 71 | 77 | 0.0 | 0.0 | 0.00 | 0.02 | 0.02 | 88 | 1012.2 |
| 20260906002510 | 71 | 77 | 0.0 | 0.0 | 0.00 | 0.02 | 0.02 | 88 | 1012.2 |
| 20260906002403 | 71 | 77 | 0.0 | 0.0 | 0.00 | 0.02 | 0.02 | 88 | 1012.1 |
| 20260906002257 | 71 | 77 | 0.0 | 0.0 | 0.00 | 0.02 | 0.02 | 87 | 1012.1 |
| 20260906002152 | 71 | 77 | 0.0 | 0.0 | 0.00 | 0.02 | 0.02 | 87 | 1012.2 |
| 20260906002046 | 71 | 77 | 0.0 | 0.0 | 0.00 | 0.02 | 0.02 | 87 | 1012.1 |
| 20260906001943 | 71 | 77 | 0.0 | 0.0 | 0.00 | 0.02 | 0.02 | 87 | 1012.1 |
| 20260906001840 | 71 | 77 | 0.0 | 0.0 | 0.00 | 0.02 | 0.02 | 87 | 1012.1 |
| 20260906001735 | 71 | 77 | 0.0 | 0.0 | 0.00 | 0.02 | 0.02 | 86 | 1012.1 |
| 20260906001627 | 71 | 77 | 0.0 | 0.0 | 0.00 | 0.02 | 0.02 | 86 | 1012.1 |
| 20260906001303 | 72 | 77 | 0.0 | 0.0 | 0.00 | 0.02 | 0.02 | 86 | 1012.0 |
| 20260906001158 | 72 | 77 | 0.0 | 0.0 | 0.00 | 0.02 | 0.02 | 86 | 1012.0 |
| 20260906001053 | 72 | 77 | 0.0 | 0.0 | 0.00 | 0.02 | 0.02 | 87 | 1012.0 |
| 20260906000729 | 72 | 78 | 0.0 | 0.0 | 0.00 | 0.02 | 0.02 | 87 | 1011.9 |
| 20260906000624 | 72 | 78 | 0.0 | 0.0 | 0.00 | 0.02 | 0.02 | 86 | 1012.0 |
| 20260906000303 | 72 | 78 | 0.0 | 0.0 | 0.00 | 0.02 | 0.02 | 86 | 1012.0 |
| 20260906000158 | 72 | 78 | 0.0 | 0.0 | 0.00 | 0.02 | 0.02 | 86 | 1012.0 |
| 20260906000054 | 72 | 78 | 0.0 | 0.0 | 0.00 | 0.02 | 0.02 | 86 | 1012.0 |
| 20260905235952 | 72 | 78 | 0.0 | 0.0 | 0.00 | 0.02 | 0.02 | 86 | 1012.0 |
| 20260905235847 | 73 | 78 | 0.0 | 0.0 | 0.00 | 0.02 | 0.02 | 86 | 1012.0 |
| 20260905235744 | 73 | 78 | 0.0 | 0.0 | 0.00 | 0.02 | 0.02 | 86 | 1012.0 |
| 20260905235637 | 73 | 78 | 0.0 | 0.0 | 0.00 | 0.02 | 0.02 | 86 | 1012.0 |
| 20260905235312 | 73 | 78 | 0.0 | 0.0 | 0.00 | 0.02 | 0.02 | 86 | 1011.9 |
| 20260905235206 | 73 | 78 | 0.0 | 0.0 | 0.00 | 0.02 | 0.02 | 86 | 1011.9 |
| 20260905235101 | 73 | 78 | 0.0 | 0.0 | 0.00 | 0.02 | 0.02 | 86 | 1011.8 |
| 20260905234959 | 73 | 78 | 0.0 | 0.0 | 0.00 | 0.02 | 0.02 | 86 | 1011.9 |
| 20260905234855 | 73 | 78 | 0.0 | 0.0 | 0.00 | 0.02 | 0.02 | 87 | 1011.8 |
| 20260905234748 | 73 | 78 | 0.0 | 0.0 | 0.00 | 0.02 | 0.02 | 87 | 1011.9 |
| 20260905234640 | 73 | 78 | 0.0 | 0.0 | 0.00 | 0.02 | 0.02 | 87 | 1011.9 |
| 20260905234533 | 73 | 78 | 0.0 | 0.0 | 0.00 | 0.02 | 0.02 | 87 | 1011.9 |
| 20260905234429 | 74 | 78 | 0.0 | 0.0 | 0.00 | 0.02 | 0.02 | 87 | 1011.9 |
| 20260905234100 | 74 | 78 | 0.0 | 0.0 | 0.00 | 0.02 | 0.02 | 87 | 1012.0 |
| 20260905233954 | 74 | 78 | 0.0 | 0.0 | 0.00 | 0.02 | 0.02 | 87 | 1011.9 |
| 20260905233851 | 74 | 78 | 0.0 | 0.0 | 0.00 | 0.02 | 0.02 | 86 | 1011.9 |
| 20260905233744 | 74 | 78 | 0.0 | 0.0 | 0.00 | 0.02 | 0.02 | 86 | 1011.9 |
| 20260905233640 | 74 | 78 | 0.0 | 0.0 | 0.00 | 0.02 | 0.02 | 86 | 1012.0 |
| 20260905233537 | 74 | 78 | 0.0 | 0.0 | 0.00 | 0.02 | 0.02 | 86 | 1012.0 |
| 20260905233430 | 74 | 78 | 0.0 | 0.0 | 0.00 | 0.02 | 0.02 | 86 | 1012.0 |
| 20260905233327 | 74 | 78 | 0.0 | 0.0 | 0.00 | 0.02 | 0.02 | 86 | 1012.0 |
| 20260905233225 | 74 | 78 | 0.0 | 0.0 | 0.00 | 0.02 | 0.02 | 85 | 1012.0 |
| 20260905232857 | 74 | 78 | 0.0 | 0.0 | 0.00 | 0.02 | 0.02 | 85 | 1012.0 |
| 20260905232755 | 74 | 78 | 0.0 | 0.0 | 0.00 | 0.02 | 0.02 | 85 | 1012.0 |
| 20260905232651 | 74 | 78 | 0.0 | 0.0 | 0.00 | 0.02 | 0.02 | 84 | 1012.0 |
| 20260905232548 | 74 | 78 | 0.0 | 0.0 | 0.00 | 0.02 | 0.02 | 84 | 1012.0 |
| 20260905232442 | 74 | 78 | 0.0 | 0.0 | 0.00 | 0.02 | 0.02 | 83 | 1012.0 |
| 20260905232338 | 75 | 78 | 0.0 | 0.0 | 0.00 | 0.02 | 0.02 | 83 | 1012.0 |
| 20260905232233 | 75 | 78 | 0.0 | 0.0 | 0.00 | 0.02 | 0.02 | 84 | 1012.0 |
| 20260905231907 | 75 | 78 | 0.0 | 0.0 | 0.00 | 0.02 | 0.02 | 83 | 1011.9 |
| 20260905231803 | 75 | 78 | 0.0 | 0.0 | 0.00 | 0.02 | 0.02 | 84 | 1011.9 |
| 20260905231658 | 75 | 78 | 0.0 | 0.0 | 0.00 | 0.02 | 0.02 | 84 | 1012.0 |
| 20260905231555 | 75 | 78 | 0.0 | 0.0 | 0.00 | 0.02 | 0.02 | 83 | 1011.9 |
| 20260905231451 | 75 | 78 | 0.0 | 0.0 | 0.00 | 0.02 | 0.02 | 83 | 1011.9 |
| 20260905231345 | 75 | 78 | 0.0 | 0.0 | 0.00 | 0.02 | 0.02 | 83 | 1011.9 |
| 20260905231239 | 75 | 78 | 0.0 | 0.0 | 0.00 | 0.02 | 0.02 | 83 | 1011.9 |
| 20260905230911 | 75 | 78 | 0.0 | 0.0 | 0.00 | 0.02 | 0.02 | 83 | 1011.9 |
| 20260905230550 | 75 | 78 | 0.0 | 0.0 | 0.00 | 0.02 | 0.02 | 83 | 1011.8 |
| 20260905230445 | 75 | 78 | 0.0 | 0.0 | 0.00 | 0.02 | 0.02 | 83 | 1011.8 |
| 20260905230340 | 75 | 78 | 0.0 | 0.0 | 0.00 | 0.02 | 0.02 | 83 | 1011.8 |
| 20260905230232 | 75 | 78 | 0.0 | 0.0 | 0.00 | 0.02 | 0.02 | 83 | 1011.8 |
| 20260905230125 | 75 | 78 | 0.0 | 0.0 | 0.00 | 0.02 | 0.02 | 83 | 1011.8 |
| 20260905230022 | 75 | 78 | 0.0 | 0.0 | 0.00 | 0.02 | 0.02 | 83 | 1011.7 |
| 20260905225916 | 75 | 78 | 0.0 | 0.0 | 0.00 | 0.02 | 0.02 | 83 | 1011.7 |
| 20260905225551 | 75 | 78 | 0.0 | 0.0 | 0.00 | 0.02 | 0.02 | 82 | 1011.8 |
| 20260905225444 | 75 | 78 | 0.0 | 0.0 | 0.00 | 0.02 | 0.02 | 82 | 1011.8 |
| 20260905225342 | 75 | 78 | 0.0 | 0.0 | 0.00 | 0.02 | 0.02 | 82 | 1011.8 |